| State | Nebraska | Latest | Unknown (2430 cfs) | |
| River | Platte River | Rating | Observed | Estimated |
| Updated | 2026-05-05 9:15 (1 hour ago) | Flood - The river is flooding. Obstacles can be treacherous or deadly. The river should be avoided at this stage for casual trips and definitely for the inexperienced. Trips should be attempted only with protective gear and equipment.Flood | (none) | (none) |
| Discharge | 2430 cfs (median: 4700 cfs) | High - The river is high and potentially dangerous, especially for the young and / or inexperienced. Normal stream obstacles are sometimes difficult to navigate. Extended distances can be attempted, but canoe travel may not be advisable.High | (none) | (none) |
| Height | 3.08 feet | Good - Conditions are ideal for a canoe or kayak. Boats typically will drag on fewer than one-quarter of riffles, if at all, and portages are unnecessary or rare. Normal float lengths can be attempted without a problem.Good | (none) | (none) |
| Trend | Steady (rising over 24 hours) | Low - River is low but can still be floated. Some riffles are okay but most come with significant dragging and might need a portage. Float lengths should be reduced to accommodate low flow, dragging, and portages.Low | (none) | (none) |
| USGS | USGS Site ( Duck Duck Go Maps) | Poor - River is too low to float comfortably. Most or all riffles will drag or must be portaged and some obstacles (such as slick shelf rock) cause undue problems. Avoid the river at this stage for casual paddling trips.Poor | (none) | (none) |
| Date | Start | End | Distance | Condition | Discharge | Height | Fishing | Details |
|---|
A total of 0 rows are displayed.
BLG - Bluegill
CCF - Channel Catfish
CP - Chain Pickerel
FWD - Freshwater Drum
GSF - Green Sunfish
KSB - Kentucky Spotted Bass
LMB - Largemouth Bass
LSF - Longear Sunfish
RB - Rock Bass / Goggle Eye
RSF - Redear Sunfish
RT - Rainbow Trout
SMB - Smallmouth Bass
WB - White Bass
WF - Whitefish
WL - WalleyeThe classic River Trips application is still available for use. It is updated with the new system using a data retrofit. It is no longer maintained. The original River Trips application is no longer updated (as of 1 Dec 2016) but can be checked for errors or for the condition of the data before it was converted to the new system.
| Observation | Height | Discharge | Maximum Discharge | Minimum Discharge | Mean Discharge | P05 | P10 | P20 | P25 | P50 (Median) | P75 | P80 | P90 | P95 |
|---|---|---|---|---|---|---|---|---|---|---|---|---|---|---|
| 2026-05-05 09:15 | 3.08 | 2430 | 27100 (1984) | 1560 (1955) | 5480 | 2510 | 2620 | 3140 | 3490 | 4700 | 6270 | 6750 | 9160 | 12000 |
| 2026-05-05 08:15 | 3.08 | 2430 | 27100 (1984) | 1560 (1955) | 5480 | 2510 | 2620 | 3140 | 3490 | 4700 | 6270 | 6750 | 9160 | 12000 |
| 2026-05-05 07:15 | 3.06 | 2380 | 27100 (1984) | 1560 (1955) | 5480 | 2510 | 2620 | 3140 | 3490 | 4700 | 6270 | 6750 | 9160 | 12000 |
| 2026-05-05 06:15 | 3.05 | 2350 | 27100 (1984) | 1560 (1955) | 5480 | 2510 | 2620 | 3140 | 3490 | 4700 | 6270 | 6750 | 9160 | 12000 |
| 2026-05-05 05:15 | 3.03 | 2300 | 27100 (1984) | 1560 (1955) | 5480 | 2510 | 2620 | 3140 | 3490 | 4700 | 6270 | 6750 | 9160 | 12000 |
| 2026-05-05 04:15 | 2.98 | 2170 | 27100 (1984) | 1560 (1955) | 5480 | 2510 | 2620 | 3140 | 3490 | 4700 | 6270 | 6750 | 9160 | 12000 |
| 2026-05-05 03:15 | 2.94 | 2070 | 27100 (1984) | 1560 (1955) | 5480 | 2510 | 2620 | 3140 | 3490 | 4700 | 6270 | 6750 | 9160 | 12000 |
| 2026-05-05 02:15 | 2.89 | 1950 | 27100 (1984) | 1560 (1955) | 5480 | 2510 | 2620 | 3140 | 3490 | 4700 | 6270 | 6750 | 9160 | 12000 |
| 2026-05-05 01:15 | 2.86 | 1880 | 27100 (1984) | 1560 (1955) | 5480 | 2510 | 2620 | 3140 | 3490 | 4700 | 6270 | 6750 | 9160 | 12000 |
| 2026-05-05 00:15 | 2.84 | 1830 | 27100 (1984) | 1560 (1955) | 5480 | 2510 | 2620 | 3140 | 3490 | 4700 | 6270 | 6750 | 9160 | 12000 |
| 2026-05-04 23:15 | 2.82 | 1790 | 27100 (1984) | 1560 (1955) | 5480 | 2510 | 2620 | 3140 | 3490 | 4700 | 6270 | 6750 | 9160 | 12000 |
| 2026-05-04 22:15 | 2.81 | 1760 | 28400 (1984) | 1530 (1955) | 5420 | 2380 | 2750 | 3090 | 3460 | 4640 | 6340 | 6640 | 8140 | 9780 |
| 2026-05-04 21:15 | 2.82 | 1790 | 28400 (1984) | 1530 (1955) | 5420 | 2380 | 2750 | 3090 | 3460 | 4640 | 6340 | 6640 | 8140 | 9780 |
| 2026-05-04 20:15 | 2.85 | 1860 | 28400 (1984) | 1530 (1955) | 5420 | 2380 | 2750 | 3090 | 3460 | 4640 | 6340 | 6640 | 8140 | 9780 |
| 2026-05-04 19:15 | 2.87 | 1900 | 28400 (1984) | 1530 (1955) | 5420 | 2380 | 2750 | 3090 | 3460 | 4640 | 6340 | 6640 | 8140 | 9780 |
| 2026-05-04 18:15 | 2.90 | 1970 | 28400 (1984) | 1530 (1955) | 5420 | 2380 | 2750 | 3090 | 3460 | 4640 | 6340 | 6640 | 8140 | 9780 |
| 2026-05-04 17:15 | 2.93 | 2050 | 28400 (1984) | 1530 (1955) | 5420 | 2380 | 2750 | 3090 | 3460 | 4640 | 6340 | 6640 | 8140 | 9780 |
| 2026-05-04 16:15 | 2.94 | 2070 | 28400 (1984) | 1530 (1955) | 5420 | 2380 | 2750 | 3090 | 3460 | 4640 | 6340 | 6640 | 8140 | 9780 |
| 2026-05-04 15:15 | 2.96 | 2120 | 28400 (1984) | 1530 (1955) | 5420 | 2380 | 2750 | 3090 | 3460 | 4640 | 6340 | 6640 | 8140 | 9780 |
| 2026-05-04 14:15 | 2.96 | 2120 | 28400 (1984) | 1530 (1955) | 5420 | 2380 | 2750 | 3090 | 3460 | 4640 | 6340 | 6640 | 8140 | 9780 |
| 2026-05-04 13:15 | 2.94 | 2070 | 28400 (1984) | 1530 (1955) | 5420 | 2380 | 2750 | 3090 | 3460 | 4640 | 6340 | 6640 | 8140 | 9780 |
| 2026-05-04 12:15 | 2.93 | 2050 | 28400 (1984) | 1530 (1955) | 5420 | 2380 | 2750 | 3090 | 3460 | 4640 | 6340 | 6640 | 8140 | 9780 |
| 2026-05-04 11:15 | 2.91 | 2000 | 28400 (1984) | 1530 (1955) | 5420 | 2380 | 2750 | 3090 | 3460 | 4640 | 6340 | 6640 | 8140 | 9780 |
| 2026-05-04 10:15 | 2.90 | 1970 | 28400 (1984) | 1530 (1955) | 5420 | 2380 | 2750 | 3090 | 3460 | 4640 | 6340 | 6640 | 8140 | 9780 |
| 2026-05-04 09:15 | 2.90 | 1970 | 28400 (1984) | 1530 (1955) | 5420 | 2380 | 2750 | 3090 | 3460 | 4640 | 6340 | 6640 | 8140 | 9780 |
| 2026-05-04 08:15 | 2.90 | 1970 | 28400 (1984) | 1530 (1955) | 5420 | 2380 | 2750 | 3090 | 3460 | 4640 | 6340 | 6640 | 8140 | 9780 |
| 2026-05-04 07:15 | 2.93 | 2050 | 28400 (1984) | 1530 (1955) | 5420 | 2380 | 2750 | 3090 | 3460 | 4640 | 6340 | 6640 | 8140 | 9780 |
| 2026-05-04 06:15 | 2.95 | 2100 | 28400 (1984) | 1530 (1955) | 5420 | 2380 | 2750 | 3090 | 3460 | 4640 | 6340 | 6640 | 8140 | 9780 |
| 2026-05-04 05:15 | 2.97 | 2150 | 28400 (1984) | 1530 (1955) | 5420 | 2380 | 2750 | 3090 | 3460 | 4640 | 6340 | 6640 | 8140 | 9780 |
| 2026-05-04 04:15 | 2.99 | 2200 | 28400 (1984) | 1530 (1955) | 5420 | 2380 | 2750 | 3090 | 3460 | 4640 | 6340 | 6640 | 8140 | 9780 |
| 2026-05-04 03:15 | 2.99 | 2200 | 28400 (1984) | 1530 (1955) | 5420 | 2380 | 2750 | 3090 | 3460 | 4640 | 6340 | 6640 | 8140 | 9780 |
| 2026-05-04 02:15 | 3.00 | 2220 | 28400 (1984) | 1530 (1955) | 5420 | 2380 | 2750 | 3090 | 3460 | 4640 | 6340 | 6640 | 8140 | 9780 |
| 2026-05-04 01:15 | 2.99 | 2200 | 28400 (1984) | 1530 (1955) | 5420 | 2380 | 2750 | 3090 | 3460 | 4640 | 6340 | 6640 | 8140 | 9780 |
| 2026-05-04 00:15 | 3.00 | 2220 | 28400 (1984) | 1530 (1955) | 5420 | 2380 | 2750 | 3090 | 3460 | 4640 | 6340 | 6640 | 8140 | 9780 |
| 2026-05-03 23:15 | 3.00 | 2220 | 28400 (1984) | 1530 (1955) | 5420 | 2380 | 2750 | 3090 | 3460 | 4640 | 6340 | 6640 | 8140 | 9780 |
| 2026-05-03 22:15 | 3.00 | 2220 | 26700 (1984) | 1660 (1955) | 5430 | 2420 | 2730 | 3040 | 3440 | 4860 | 6410 | 6720 | 8000 | 9700 |
| 2026-05-03 21:15 | 3.00 | 2220 | 26700 (1984) | 1660 (1955) | 5430 | 2420 | 2730 | 3040 | 3440 | 4860 | 6410 | 6720 | 8000 | 9700 |
| 2026-05-03 20:15 | 3.00 | 2220 | 26700 (1984) | 1660 (1955) | 5430 | 2420 | 2730 | 3040 | 3440 | 4860 | 6410 | 6720 | 8000 | 9700 |
| 2026-05-03 19:15 | 2.99 | 2200 | 26700 (1984) | 1660 (1955) | 5430 | 2420 | 2730 | 3040 | 3440 | 4860 | 6410 | 6720 | 8000 | 9700 |
| 2026-05-03 18:15 | 3.00 | 2220 | 26700 (1984) | 1660 (1955) | 5430 | 2420 | 2730 | 3040 | 3440 | 4860 | 6410 | 6720 | 8000 | 9700 |
| 2026-05-03 17:15 | 2.99 | 2200 | 26700 (1984) | 1660 (1955) | 5430 | 2420 | 2730 | 3040 | 3440 | 4860 | 6410 | 6720 | 8000 | 9700 |
| 2026-05-03 16:15 | 3.01 | 2250 | 26700 (1984) | 1660 (1955) | 5430 | 2420 | 2730 | 3040 | 3440 | 4860 | 6410 | 6720 | 8000 | 9700 |
| 2026-05-03 15:15 | 3.00 | 2220 | 26700 (1984) | 1660 (1955) | 5430 | 2420 | 2730 | 3040 | 3440 | 4860 | 6410 | 6720 | 8000 | 9700 |
| 2026-05-03 14:15 | 3.01 | 2250 | 26700 (1984) | 1660 (1955) | 5430 | 2420 | 2730 | 3040 | 3440 | 4860 | 6410 | 6720 | 8000 | 9700 |
| 2026-05-03 13:15 | 3.00 | 2220 | 26700 (1984) | 1660 (1955) | 5430 | 2420 | 2730 | 3040 | 3440 | 4860 | 6410 | 6720 | 8000 | 9700 |
| 2026-05-03 12:15 | 2.99 | 2200 | 26700 (1984) | 1660 (1955) | 5430 | 2420 | 2730 | 3040 | 3440 | 4860 | 6410 | 6720 | 8000 | 9700 |
| 2026-05-03 11:15 | 2.99 | 2200 | 26700 (1984) | 1660 (1955) | 5430 | 2420 | 2730 | 3040 | 3440 | 4860 | 6410 | 6720 | 8000 | 9700 |
| 2026-05-03 10:15 | 2.99 | 2200 | 26700 (1984) | 1660 (1955) | 5430 | 2420 | 2730 | 3040 | 3440 | 4860 | 6410 | 6720 | 8000 | 9700 |
| 2026-05-03 09:15 | 3.00 | 2220 | 26700 (1984) | 1660 (1955) | 5430 | 2420 | 2730 | 3040 | 3440 | 4860 | 6410 | 6720 | 8000 | 9700 |
| 2026-05-03 08:15 | 3.00 | 2220 | 26700 (1984) | 1660 (1955) | 5430 | 2420 | 2730 | 3040 | 3440 | 4860 | 6410 | 6720 | 8000 | 9700 |
| 2026-05-03 07:15 | 3.00 | 2220 | 26700 (1984) | 1660 (1955) | 5430 | 2420 | 2730 | 3040 | 3440 | 4860 | 6410 | 6720 | 8000 | 9700 |
| 2026-05-03 06:15 | 2.99 | 2200 | 26700 (1984) | 1660 (1955) | 5430 | 2420 | 2730 | 3040 | 3440 | 4860 | 6410 | 6720 | 8000 | 9700 |
| 2026-05-03 05:15 | 2.99 | 2200 | 26700 (1984) | 1660 (1955) | 5430 | 2420 | 2730 | 3040 | 3440 | 4860 | 6410 | 6720 | 8000 | 9700 |
| 2026-05-03 04:15 | 2.97 | 2150 | 26700 (1984) | 1660 (1955) | 5430 | 2420 | 2730 | 3040 | 3440 | 4860 | 6410 | 6720 | 8000 | 9700 |
| 2026-05-03 03:15 | 2.95 | 2100 | 26700 (1984) | 1660 (1955) | 5430 | 2420 | 2730 | 3040 | 3440 | 4860 | 6410 | 6720 | 8000 | 9700 |
| 2026-05-03 02:15 | 2.95 | 2100 | 26700 (1984) | 1660 (1955) | 5430 | 2420 | 2730 | 3040 | 3440 | 4860 | 6410 | 6720 | 8000 | 9700 |
| 2026-05-03 01:15 | 2.96 | 2120 | 26700 (1984) | 1660 (1955) | 5430 | 2420 | 2730 | 3040 | 3440 | 4860 | 6410 | 6720 | 8000 | 9700 |
| 2026-05-03 00:15 | 2.98 | 2170 | 26700 (1984) | 1660 (1955) | 5430 | 2420 | 2730 | 3040 | 3440 | 4860 | 6410 | 6720 | 8000 | 9700 |
| 2026-05-02 23:15 | 3.00 | 2220 | 26700 (1984) | 1660 (1955) | 5430 | 2420 | 2730 | 3040 | 3440 | 4860 | 6410 | 6720 | 8000 | 9700 |
| 2026-05-02 22:15 | 3.00 | 2220 | 25200 (1984) | 1800 (1955) | 5480 | 2230 | 2800 | 3130 | 3690 | 4940 | 6100 | 6550 | 8140 | 11800 |
| 2026-05-02 21:15 | 2.99 | 2200 | 25200 (1984) | 1800 (1955) | 5480 | 2230 | 2800 | 3130 | 3690 | 4940 | 6100 | 6550 | 8140 | 11800 |
| 2026-05-02 20:15 | 2.98 | 2170 | 25200 (1984) | 1800 (1955) | 5480 | 2230 | 2800 | 3130 | 3690 | 4940 | 6100 | 6550 | 8140 | 11800 |
| 2026-05-02 19:15 | 2.96 | 2120 | 25200 (1984) | 1800 (1955) | 5480 | 2230 | 2800 | 3130 | 3690 | 4940 | 6100 | 6550 | 8140 | 11800 |
| 2026-05-02 18:15 | 2.91 | 2000 | 25200 (1984) | 1800 (1955) | 5480 | 2230 | 2800 | 3130 | 3690 | 4940 | 6100 | 6550 | 8140 | 11800 |
| 2026-05-02 17:15 | 2.85 | 1860 | 25200 (1984) | 1800 (1955) | 5480 | 2230 | 2800 | 3130 | 3690 | 4940 | 6100 | 6550 | 8140 | 11800 |
| 2026-05-02 16:15 | 2.82 | 1790 | 25200 (1984) | 1800 (1955) | 5480 | 2230 | 2800 | 3130 | 3690 | 4940 | 6100 | 6550 | 8140 | 11800 |
| 2026-05-02 15:15 | 2.77 | 1670 | 25200 (1984) | 1800 (1955) | 5480 | 2230 | 2800 | 3130 | 3690 | 4940 | 6100 | 6550 | 8140 | 11800 |
| 2026-05-02 14:15 | 2.72 | 1570 | 25200 (1984) | 1800 (1955) | 5480 | 2230 | 2800 | 3130 | 3690 | 4940 | 6100 | 6550 | 8140 | 11800 |
| 2026-05-02 13:15 | 2.71 | 1550 | 25200 (1984) | 1800 (1955) | 5480 | 2230 | 2800 | 3130 | 3690 | 4940 | 6100 | 6550 | 8140 | 11800 |
| 2026-05-02 12:15 | 2.70 | 1520 | 25200 (1984) | 1800 (1955) | 5480 | 2230 | 2800 | 3130 | 3690 | 4940 | 6100 | 6550 | 8140 | 11800 |
| 2026-05-02 11:15 | 2.70 | 1520 | 25200 (1984) | 1800 (1955) | 5480 | 2230 | 2800 | 3130 | 3690 | 4940 | 6100 | 6550 | 8140 | 11800 |
| 2026-05-02 10:15 | 2.69 | 1500 | 25200 (1984) | 1800 (1955) | 5480 | 2230 | 2800 | 3130 | 3690 | 4940 | 6100 | 6550 | 8140 | 11800 |
| 2026-05-02 09:15 | 2.69 | 1500 | 25200 (1984) | 1800 (1955) | 5480 | 2230 | 2800 | 3130 | 3690 | 4940 | 6100 | 6550 | 8140 | 11800 |
| 2026-05-02 08:15 | 2.68 | 1480 | 25200 (1984) | 1800 (1955) | 5480 | 2230 | 2800 | 3130 | 3690 | 4940 | 6100 | 6550 | 8140 | 11800 |
| 2026-05-02 07:15 | 2.69 | 1500 | 25200 (1984) | 1800 (1955) | 5480 | 2230 | 2800 | 3130 | 3690 | 4940 | 6100 | 6550 | 8140 | 11800 |
| 2026-05-02 06:15 | 2.68 | 1480 | 25200 (1984) | 1800 (1955) | 5480 | 2230 | 2800 | 3130 | 3690 | 4940 | 6100 | 6550 | 8140 | 11800 |
| 2026-05-02 05:15 | 2.68 | 1480 | 25200 (1984) | 1800 (1955) | 5480 | 2230 | 2800 | 3130 | 3690 | 4940 | 6100 | 6550 | 8140 | 11800 |
| 2026-05-02 04:15 | 2.68 | 1480 | 25200 (1984) | 1800 (1955) | 5480 | 2230 | 2800 | 3130 | 3690 | 4940 | 6100 | 6550 | 8140 | 11800 |
| 2026-05-02 03:15 | 2.68 | 1480 | 25200 (1984) | 1800 (1955) | 5480 | 2230 | 2800 | 3130 | 3690 | 4940 | 6100 | 6550 | 8140 | 11800 |
| 2026-05-02 02:15 | 2.67 | 1460 | 25200 (1984) | 1800 (1955) | 5480 | 2230 | 2800 | 3130 | 3690 | 4940 | 6100 | 6550 | 8140 | 11800 |
| 2026-05-02 01:15 | 2.68 | 1480 | 25200 (1984) | 1800 (1955) | 5480 | 2230 | 2800 | 3130 | 3690 | 4940 | 6100 | 6550 | 8140 | 11800 |
| 2026-05-02 00:15 | 2.68 | 1480 | 25200 (1984) | 1800 (1955) | 5480 | 2230 | 2800 | 3130 | 3690 | 4940 | 6100 | 6550 | 8140 | 11800 |
| 2026-05-01 23:15 | 2.69 | 1500 | 25200 (1984) | 1800 (1955) | 5480 | 2230 | 2800 | 3130 | 3690 | 4940 | 6100 | 6550 | 8140 | 11800 |
| 2026-05-01 22:15 | 2.70 | 1520 | 25000 (1984) | 2160 (1989) | 5520 | 2400 | 2780 | 3460 | 3700 | 4950 | 6410 | 6730 | 8630 | 9960 |
| 2026-05-01 21:15 | 2.73 | 1590 | 25000 (1984) | 2160 (1989) | 5520 | 2400 | 2780 | 3460 | 3700 | 4950 | 6410 | 6730 | 8630 | 9960 |
| 2026-05-01 20:15 | 2.76 | 1650 | 25000 (1984) | 2160 (1989) | 5520 | 2400 | 2780 | 3460 | 3700 | 4950 | 6410 | 6730 | 8630 | 9960 |
| 2026-05-01 19:15 | 2.80 | 1740 | 25000 (1984) | 2160 (1989) | 5520 | 2400 | 2780 | 3460 | 3700 | 4950 | 6410 | 6730 | 8630 | 9960 |
| 2026-05-01 18:15 | 2.86 | 1880 | 25000 (1984) | 2160 (1989) | 5520 | 2400 | 2780 | 3460 | 3700 | 4950 | 6410 | 6730 | 8630 | 9960 |
| 2026-05-01 17:15 | 2.92 | 2020 | 25000 (1984) | 2160 (1989) | 5520 | 2400 | 2780 | 3460 | 3700 | 4950 | 6410 | 6730 | 8630 | 9960 |
| 2026-05-01 16:15 | 2.98 | 2170 | 25000 (1984) | 2160 (1989) | 5520 | 2400 | 2780 | 3460 | 3700 | 4950 | 6410 | 6730 | 8630 | 9960 |
| 2026-05-01 15:15 | 3.06 | 2380 | 25000 (1984) | 2160 (1989) | 5520 | 2400 | 2780 | 3460 | 3700 | 4950 | 6410 | 6730 | 8630 | 9960 |
| 2026-05-01 14:15 | 3.13 | 2570 | 25000 (1984) | 2160 (1989) | 5520 | 2400 | 2780 | 3460 | 3700 | 4950 | 6410 | 6730 | 8630 | 9960 |
| 2026-05-01 13:15 | 3.21 | 2800 | 25000 (1984) | 2160 (1989) | 5520 | 2400 | 2780 | 3460 | 3700 | 4950 | 6410 | 6730 | 8630 | 9960 |
| 2026-05-01 12:15 | 3.30 | 3070 | 25000 (1984) | 2160 (1989) | 5520 | 2400 | 2780 | 3460 | 3700 | 4950 | 6410 | 6730 | 8630 | 9960 |
| 2026-05-01 11:15 | 3.36 | 3260 | 25000 (1984) | 2160 (1989) | 5520 | 2400 | 2780 | 3460 | 3700 | 4950 | 6410 | 6730 | 8630 | 9960 |
| 2026-05-01 10:15 | 3.42 | 3450 | 25000 (1984) | 2160 (1989) | 5520 | 2400 | 2780 | 3460 | 3700 | 4950 | 6410 | 6730 | 8630 | 9960 |
| 2026-05-01 09:15 | 3.49 | 3690 | 25000 (1984) | 2160 (1989) | 5520 | 2400 | 2780 | 3460 | 3700 | 4950 | 6410 | 6730 | 8630 | 9960 |
| 2026-05-01 08:15 | 3.55 | 3900 | 25000 (1984) | 2160 (1989) | 5520 | 2400 | 2780 | 3460 | 3700 | 4950 | 6410 | 6730 | 8630 | 9960 |
| 2026-05-01 07:15 | 3.58 | 4000 | 25000 (1984) | 2160 (1989) | 5520 | 2400 | 2780 | 3460 | 3700 | 4950 | 6410 | 6730 | 8630 | 9960 |
| 2026-05-01 06:15 | 3.60 | 4080 | 25000 (1984) | 2160 (1989) | 5520 | 2400 | 2780 | 3460 | 3700 | 4950 | 6410 | 6730 | 8630 | 9960 |
| 2026-05-01 05:15 | 3.58 | 4000 | 25000 (1984) | 2160 (1989) | 5520 | 2400 | 2780 | 3460 | 3700 | 4950 | 6410 | 6730 | 8630 | 9960 |
| 2026-05-01 04:15 | 3.57 | 3970 | 25000 (1984) | 2160 (1989) | 5520 | 2400 | 2780 | 3460 | 3700 | 4950 | 6410 | 6730 | 8630 | 9960 |
| 2026-05-01 03:15 | 3.52 | 3790 | 25000 (1984) | 2160 (1989) | 5520 | 2400 | 2780 | 3460 | 3700 | 4950 | 6410 | 6730 | 8630 | 9960 |
| 2026-05-01 02:15 | 3.43 | 3490 | 25000 (1984) | 2160 (1989) | 5520 | 2400 | 2780 | 3460 | 3700 | 4950 | 6410 | 6730 | 8630 | 9960 |
| 2026-05-01 01:15 | 3.28 | 3010 | 25000 (1984) | 2160 (1989) | 5520 | 2400 | 2780 | 3460 | 3700 | 4950 | 6410 | 6730 | 8630 | 9960 |
| 2026-05-01 00:15 | 3.05 | 2350 | 25000 (1984) | 2160 (1989) | 5520 | 2400 | 2780 | 3460 | 3700 | 4950 | 6410 | 6730 | 8630 | 9960 |
| 2026-04-30 23:15 | 2.85 | 1860 | 25000 (1984) | 2160 (1989) | 5520 | 2400 | 2780 | 3460 | 3700 | 4950 | 6410 | 6730 | 8630 | 9960 |
| 2026-04-30 22:15 | 2.68 | 1480 | 22100 (1984) | 1910 (2023) | 5340 | 2180 | 2680 | 3520 | 3660 | 4940 | 6320 | 6660 | 8020 | 10100 |
| 2026-04-30 21:15 | 2.62 | 1360 | 22100 (1984) | 1910 (2023) | 5340 | 2180 | 2680 | 3520 | 3660 | 4940 | 6320 | 6660 | 8020 | 10100 |
| 2026-04-30 20:15 | 2.63 | 1380 | 22100 (1984) | 1910 (2023) | 5340 | 2180 | 2680 | 3520 | 3660 | 4940 | 6320 | 6660 | 8020 | 10100 |
| 2026-04-30 19:15 | 2.69 | 1500 | 22100 (1984) | 1910 (2023) | 5340 | 2180 | 2680 | 3520 | 3660 | 4940 | 6320 | 6660 | 8020 | 10100 |
| 2026-04-30 18:15 | 2.79 | 1720 | 22100 (1984) | 1910 (2023) | 5340 | 2180 | 2680 | 3520 | 3660 | 4940 | 6320 | 6660 | 8020 | 10100 |
| 2026-04-30 17:15 | 2.90 | 1970 | 22100 (1984) | 1910 (2023) | 5340 | 2180 | 2680 | 3520 | 3660 | 4940 | 6320 | 6660 | 8020 | 10100 |
| 2026-04-30 16:15 | 3.03 | 2300 | 22100 (1984) | 1910 (2023) | 5340 | 2180 | 2680 | 3520 | 3660 | 4940 | 6320 | 6660 | 8020 | 10100 |
| 2026-04-30 15:15 | 3.14 | 2600 | 22100 (1984) | 1910 (2023) | 5340 | 2180 | 2680 | 3520 | 3660 | 4940 | 6320 | 6660 | 8020 | 10100 |
| 2026-04-30 14:15 | 3.25 | 2920 | 22100 (1984) | 1910 (2023) | 5340 | 2180 | 2680 | 3520 | 3660 | 4940 | 6320 | 6660 | 8020 | 10100 |
| 2026-04-30 13:15 | 3.33 | 3160 | 22100 (1984) | 1910 (2023) | 5340 | 2180 | 2680 | 3520 | 3660 | 4940 | 6320 | 6660 | 8020 | 10100 |
| 2026-04-30 12:15 | 3.40 | 3390 | 22100 (1984) | 1910 (2023) | 5340 | 2180 | 2680 | 3520 | 3660 | 4940 | 6320 | 6660 | 8020 | 10100 |
| 2026-04-30 11:15 | 3.49 | 3690 | 22100 (1984) | 1910 (2023) | 5340 | 2180 | 2680 | 3520 | 3660 | 4940 | 6320 | 6660 | 8020 | 10100 |
| 2026-04-30 10:15 | 3.55 | 3900 | 22100 (1984) | 1910 (2023) | 5340 | 2180 | 2680 | 3520 | 3660 | 4940 | 6320 | 6660 | 8020 | 10100 |
| 2026-04-30 09:15 | 3.59 | 4040 | 22100 (1984) | 1910 (2023) | 5340 | 2180 | 2680 | 3520 | 3660 | 4940 | 6320 | 6660 | 8020 | 10100 |
| 2026-04-30 08:15 | 3.60 | 4080 | 22100 (1984) | 1910 (2023) | 5340 | 2180 | 2680 | 3520 | 3660 | 4940 | 6320 | 6660 | 8020 | 10100 |
| 2026-04-30 07:15 | 3.59 | 4040 | 22100 (1984) | 1910 (2023) | 5340 | 2180 | 2680 | 3520 | 3660 | 4940 | 6320 | 6660 | 8020 | 10100 |
| 2026-04-30 06:15 | 3.60 | 4080 | 22100 (1984) | 1910 (2023) | 5340 | 2180 | 2680 | 3520 | 3660 | 4940 | 6320 | 6660 | 8020 | 10100 |
| 2026-04-30 05:15 | 3.59 | 4040 | 22100 (1984) | 1910 (2023) | 5340 | 2180 | 2680 | 3520 | 3660 | 4940 | 6320 | 6660 | 8020 | 10100 |
| 2026-04-30 04:15 | 3.54 | 3860 | 22100 (1984) | 1910 (2023) | 5340 | 2180 | 2680 | 3520 | 3660 | 4940 | 6320 | 6660 | 8020 | 10100 |
| 2026-04-30 03:15 | 3.48 | 3660 | 22100 (1984) | 1910 (2023) | 5340 | 2180 | 2680 | 3520 | 3660 | 4940 | 6320 | 6660 | 8020 | 10100 |
| 2026-04-30 02:15 | 3.37 | 3290 | 22100 (1984) | 1910 (2023) | 5340 | 2180 | 2680 | 3520 | 3660 | 4940 | 6320 | 6660 | 8020 | 10100 |
| 2026-04-30 01:15 | 3.17 | 2690 | 22100 (1984) | 1910 (2023) | 5340 | 2180 | 2680 | 3520 | 3660 | 4940 | 6320 | 6660 | 8020 | 10100 |
| 2026-04-30 00:15 | 2.93 | 2050 | 22100 (1984) | 1910 (2023) | 5340 | 2180 | 2680 | 3520 | 3660 | 4940 | 6320 | 6660 | 8020 | 10100 |
| 2026-04-29 23:15 | 2.69 | 1500 | 22100 (1984) | 1910 (2023) | 5340 | 2180 | 2680 | 3520 | 3660 | 4940 | 6320 | 6660 | 8020 | 10100 |
| 2026-04-29 22:15 | 2.54 | 1210 | 17000 (1984) | 1890 (2023) | 5400 | 2590 | 2890 | 3480 | 3730 | 4860 | 6120 | 6670 | 8050 | 11500 |
| 2026-04-29 21:15 | 2.48 | 1100 | 17000 (1984) | 1890 (2023) | 5400 | 2590 | 2890 | 3480 | 3730 | 4860 | 6120 | 6670 | 8050 | 11500 |
| 2026-04-29 20:15 | 2.50 | 1140 | 17000 (1984) | 1890 (2023) | 5400 | 2590 | 2890 | 3480 | 3730 | 4860 | 6120 | 6670 | 8050 | 11500 |
| 2026-04-29 19:15 | 2.56 | 1250 | 17000 (1984) | 1890 (2023) | 5400 | 2590 | 2890 | 3480 | 3730 | 4860 | 6120 | 6670 | 8050 | 11500 |
| 2026-04-29 18:15 | 2.66 | 1440 | 17000 (1984) | 1890 (2023) | 5400 | 2590 | 2890 | 3480 | 3730 | 4860 | 6120 | 6670 | 8050 | 11500 |
| 2026-04-29 17:15 | 2.77 | 1670 | 17000 (1984) | 1890 (2023) | 5400 | 2590 | 2890 | 3480 | 3730 | 4860 | 6120 | 6670 | 8050 | 11500 |
| 2026-04-29 16:15 | 2.90 | 1970 | 17000 (1984) | 1890 (2023) | 5400 | 2590 | 2890 | 3480 | 3730 | 4860 | 6120 | 6670 | 8050 | 11500 |
| 2026-04-29 15:15 | 3.02 | 2270 | 17000 (1984) | 1890 (2023) | 5400 | 2590 | 2890 | 3480 | 3730 | 4860 | 6120 | 6670 | 8050 | 11500 |
| 2026-04-29 14:15 | 3.18 | 2710 | 17000 (1984) | 1890 (2023) | 5400 | 2590 | 2890 | 3480 | 3730 | 4860 | 6120 | 6670 | 8050 | 11500 |
| 2026-04-29 13:15 | 3.29 | 3040 | 17000 (1984) | 1890 (2023) | 5400 | 2590 | 2890 | 3480 | 3730 | 4860 | 6120 | 6670 | 8050 | 11500 |
| 2026-04-29 12:15 | 3.38 | 3320 | 17000 (1984) | 1890 (2023) | 5400 | 2590 | 2890 | 3480 | 3730 | 4860 | 6120 | 6670 | 8050 | 11500 |
| 2026-04-29 11:15 | 3.46 | 3590 | 17000 (1984) | 1890 (2023) | 5400 | 2590 | 2890 | 3480 | 3730 | 4860 | 6120 | 6670 | 8050 | 11500 |
| 2026-04-29 10:15 | 3.52 | 3790 | 17000 (1984) | 1890 (2023) | 5400 | 2590 | 2890 | 3480 | 3730 | 4860 | 6120 | 6670 | 8050 | 11500 |
| 2026-04-29 09:15 | 3.59 | 4040 | 17000 (1984) | 1890 (2023) | 5400 | 2590 | 2890 | 3480 | 3730 | 4860 | 6120 | 6670 | 8050 | 11500 |
| 2026-04-29 08:15 | 3.62 | 4150 | 17000 (1984) | 1890 (2023) | 5400 | 2590 | 2890 | 3480 | 3730 | 4860 | 6120 | 6670 | 8050 | 11500 |
| 2026-04-29 07:15 | 3.63 | 4190 | 17000 (1984) | 1890 (2023) | 5400 | 2590 | 2890 | 3480 | 3730 | 4860 | 6120 | 6670 | 8050 | 11500 |
| 2026-04-29 06:15 | 3.59 | 4040 | 17000 (1984) | 1890 (2023) | 5400 | 2590 | 2890 | 3480 | 3730 | 4860 | 6120 | 6670 | 8050 | 11500 |
| 2026-04-29 05:15 | 3.57 | 3970 | 17000 (1984) | 1890 (2023) | 5400 | 2590 | 2890 | 3480 | 3730 | 4860 | 6120 | 6670 | 8050 | 11500 |
| 2026-04-29 04:15 | 3.55 | 3900 | 17000 (1984) | 1890 (2023) | 5400 | 2590 | 2890 | 3480 | 3730 | 4860 | 6120 | 6670 | 8050 | 11500 |
| 2026-04-29 03:15 | 3.52 | 3790 | 17000 (1984) | 1890 (2023) | 5400 | 2590 | 2890 | 3480 | 3730 | 4860 | 6120 | 6670 | 8050 | 11500 |
| 2026-04-29 02:15 | 3.41 | 3420 | 17000 (1984) | 1890 (2023) | 5400 | 2590 | 2890 | 3480 | 3730 | 4860 | 6120 | 6670 | 8050 | 11500 |
| 2026-04-29 01:15 | 3.27 | 2980 | 17000 (1984) | 1890 (2023) | 5400 | 2590 | 2890 | 3480 | 3730 | 4860 | 6120 | 6670 | 8050 | 11500 |
| 2026-04-29 00:15 | 3.05 | 2350 | 17000 (1984) | 1890 (2023) | 5400 | 2590 | 2890 | 3480 | 3730 | 4860 | 6120 | 6670 | 8050 | 11500 |
| 2026-04-28 23:15 | 2.82 | 1790 | 17000 (1984) | 1890 (2023) | 5400 | 2590 | 2890 | 3480 | 3730 | 4860 | 6120 | 6670 | 8050 | 11500 |
| 2026-04-28 22:15 | 2.63 | 1380 | 18300 (1984) | 1820 (2025) | 5520 | 2680 | 2820 | 3430 | 3600 | 4790 | 6360 | 6830 | 10200 | 12200 |
| 2026-04-28 21:15 | 2.53 | 1190 | 18300 (1984) | 1820 (2025) | 5520 | 2680 | 2820 | 3430 | 3600 | 4790 | 6360 | 6830 | 10200 | 12200 |
| 2026-04-28 20:15 | 2.50 | 1140 | 18300 (1984) | 1820 (2025) | 5520 | 2680 | 2820 | 3430 | 3600 | 4790 | 6360 | 6830 | 10200 | 12200 |
| 2026-04-28 19:15 | 2.54 | 1210 | 18300 (1984) | 1820 (2025) | 5520 | 2680 | 2820 | 3430 | 3600 | 4790 | 6360 | 6830 | 10200 | 12200 |
| 2026-04-28 18:15 | 2.62 | 1360 | 18300 (1984) | 1820 (2025) | 5520 | 2680 | 2820 | 3430 | 3600 | 4790 | 6360 | 6830 | 10200 | 12200 |
| 2026-04-28 17:15 | 2.72 | 1570 | 18300 (1984) | 1820 (2025) | 5520 | 2680 | 2820 | 3430 | 3600 | 4790 | 6360 | 6830 | 10200 | 12200 |
| 2026-04-28 16:15 | 2.82 | 1790 | 18300 (1984) | 1820 (2025) | 5520 | 2680 | 2820 | 3430 | 3600 | 4790 | 6360 | 6830 | 10200 | 12200 |
| 2026-04-28 15:15 | 2.94 | 2070 | 18300 (1984) | 1820 (2025) | 5520 | 2680 | 2820 | 3430 | 3600 | 4790 | 6360 | 6830 | 10200 | 12200 |
| 2026-04-28 14:15 | 3.09 | 2460 | 18300 (1984) | 1820 (2025) | 5520 | 2680 | 2820 | 3430 | 3600 | 4790 | 6360 | 6830 | 10200 | 12200 |
| 2026-04-28 13:15 | 3.21 | 2800 | 18300 (1984) | 1820 (2025) | 5520 | 2680 | 2820 | 3430 | 3600 | 4790 | 6360 | 6830 | 10200 | 12200 |
| 2026-04-28 12:15 | 3.34 | 3200 | 18300 (1984) | 1820 (2025) | 5520 | 2680 | 2820 | 3430 | 3600 | 4790 | 6360 | 6830 | 10200 | 12200 |
| 2026-04-28 11:15 | 3.39 | 3360 | 18300 (1984) | 1820 (2025) | 5520 | 2680 | 2820 | 3430 | 3600 | 4790 | 6360 | 6830 | 10200 | 12200 |
| 2026-04-28 10:15 | 3.47 | 3620 | 18300 (1984) | 1820 (2025) | 5520 | 2680 | 2820 | 3430 | 3600 | 4790 | 6360 | 6830 | 10200 | 12200 |
| 2026-04-28 09:15 | 3.49 | 3690 | 18300 (1984) | 1820 (2025) | 5520 | 2680 | 2820 | 3430 | 3600 | 4790 | 6360 | 6830 | 10200 | 12200 |
| 2026-04-28 08:15 | 3.46 | 3590 | 18300 (1984) | 1820 (2025) | 5520 | 2680 | 2820 | 3430 | 3600 | 4790 | 6360 | 6830 | 10200 | 12200 |
| 2026-04-28 07:15 | 3.39 | 3360 | 18300 (1984) | 1820 (2025) | 5520 | 2680 | 2820 | 3430 | 3600 | 4790 | 6360 | 6830 | 10200 | 12200 |
| 2026-04-28 06:15 | 3.26 | 2950 | 18300 (1984) | 1820 (2025) | 5520 | 2680 | 2820 | 3430 | 3600 | 4790 | 6360 | 6830 | 10200 | 12200 |
| 2026-04-28 05:15 | 3.12 | 2540 | 18300 (1984) | 1820 (2025) | 5520 | 2680 | 2820 | 3430 | 3600 | 4790 | 6360 | 6830 | 10200 | 12200 |
| 2026-04-28 04:15 | 2.93 | 2050 | 18300 (1984) | 1820 (2025) | 5520 | 2680 | 2820 | 3430 | 3600 | 4790 | 6360 | 6830 | 10200 | 12200 |
| 2026-04-28 03:15 | 2.76 | 1650 | 18300 (1984) | 1820 (2025) | 5520 | 2680 | 2820 | 3430 | 3600 | 4790 | 6360 | 6830 | 10200 | 12200 |
| 2026-04-28 02:15 | 2.61 | 1340 | 18300 (1984) | 1820 (2025) | 5520 | 2680 | 2820 | 3430 | 3600 | 4790 | 6360 | 6830 | 10200 | 12200 |
| 2026-04-28 01:15 | 2.49 | 1120 | 18300 (1984) | 1820 (2025) | 5520 | 2680 | 2820 | 3430 | 3600 | 4790 | 6360 | 6830 | 10200 | 12200 |
| 2026-04-28 00:15 | 2.41 | 986 | 18300 (1984) | 1820 (2025) | 5520 | 2680 | 2820 | 3430 | 3600 | 4790 | 6360 | 6830 | 10200 | 12200 |
| 2026-04-27 23:15 | 2.36 | 906 | 18300 (1984) | 1820 (2025) | 5520 | 2680 | 2820 | 3430 | 3600 | 4790 | 6360 | 6830 | 10200 | 12200 |
| 2026-04-27 22:15 | 2.36 | 906 | 22100 (1984) | 2390 (1989) | 5600 | 2680 | 2800 | 3220 | 3650 | 4680 | 6330 | 6770 | 9250 | 12300 |
| 2026-04-27 21:15 | 2.39 | 954 | 22100 (1984) | 2390 (1989) | 5600 | 2680 | 2800 | 3220 | 3650 | 4680 | 6330 | 6770 | 9250 | 12300 |
| 2026-04-27 20:15 | 2.44 | 1040 | 22100 (1984) | 2390 (1989) | 5600 | 2680 | 2800 | 3220 | 3650 | 4680 | 6330 | 6770 | 9250 | 12300 |
| 2026-04-27 19:15 | 2.51 | 1160 | 22100 (1984) | 2390 (1989) | 5600 | 2680 | 2800 | 3220 | 3650 | 4680 | 6330 | 6770 | 9250 | 12300 |
| 2026-04-27 18:15 | 2.60 | 1320 | 22100 (1984) | 2390 (1989) | 5600 | 2680 | 2800 | 3220 | 3650 | 4680 | 6330 | 6770 | 9250 | 12300 |
| 2026-04-27 17:15 | 2.71 | 1550 | 22100 (1984) | 2390 (1989) | 5600 | 2680 | 2800 | 3220 | 3650 | 4680 | 6330 | 6770 | 9250 | 12300 |
| 2026-04-27 16:15 | 2.83 | 1810 | 22100 (1984) | 2390 (1989) | 5600 | 2680 | 2800 | 3220 | 3650 | 4680 | 6330 | 6770 | 9250 | 12300 |
| 2026-04-27 15:15 | 2.98 | 2170 | 22100 (1984) | 2390 (1989) | 5600 | 2680 | 2800 | 3220 | 3650 | 4680 | 6330 | 6770 | 9250 | 12300 |
| 2026-04-27 14:15 | 3.12 | 2540 | 22100 (1984) | 2390 (1989) | 5600 | 2680 | 2800 | 3220 | 3650 | 4680 | 6330 | 6770 | 9250 | 12300 |
| 2026-04-27 13:15 | 3.23 | 2860 | 22100 (1984) | 2390 (1989) | 5600 | 2680 | 2800 | 3220 | 3650 | 4680 | 6330 | 6770 | 9250 | 12300 |
| 2026-04-27 12:15 | 3.37 | 3290 | 22100 (1984) | 2390 (1989) | 5600 | 2680 | 2800 | 3220 | 3650 | 4680 | 6330 | 6770 | 9250 | 12300 |
| 2026-04-27 11:15 | 3.46 | 3590 | 22100 (1984) | 2390 (1989) | 5600 | 2680 | 2800 | 3220 | 3650 | 4680 | 6330 | 6770 | 9250 | 12300 |
| 2026-04-27 10:15 | 3.54 | 3860 | 22100 (1984) | 2390 (1989) | 5600 | 2680 | 2800 | 3220 | 3650 | 4680 | 6330 | 6770 | 9250 | 12300 |
| 2026-04-27 09:15 | 3.57 | 3970 | 22100 (1984) | 2390 (1989) | 5600 | 2680 | 2800 | 3220 | 3650 | 4680 | 6330 | 6770 | 9250 | 12300 |
| 2026-04-27 08:15 | 3.61 | 4110 | 22100 (1984) | 2390 (1989) | 5600 | 2680 | 2800 | 3220 | 3650 | 4680 | 6330 | 6770 | 9250 | 12300 |
| 2026-04-27 07:15 | 3.57 | 3970 | 22100 (1984) | 2390 (1989) | 5600 | 2680 | 2800 | 3220 | 3650 | 4680 | 6330 | 6770 | 9250 | 12300 |
| 2026-04-27 06:15 | 3.56 | 3930 | 22100 (1984) | 2390 (1989) | 5600 | 2680 | 2800 | 3220 | 3650 | 4680 | 6330 | 6770 | 9250 | 12300 |
| 2026-04-27 05:15 | 3.52 | 3790 | 22100 (1984) | 2390 (1989) | 5600 | 2680 | 2800 | 3220 | 3650 | 4680 | 6330 | 6770 | 9250 | 12300 |
| 2026-04-27 04:15 | 3.44 | 3520 | 22100 (1984) | 2390 (1989) | 5600 | 2680 | 2800 | 3220 | 3650 | 4680 | 6330 | 6770 | 9250 | 12300 |
| 2026-04-27 03:15 | 3.25 | 2920 | 22100 (1984) | 2390 (1989) | 5600 | 2680 | 2800 | 3220 | 3650 | 4680 | 6330 | 6770 | 9250 | 12300 |
| 2026-04-27 02:15 | 2.95 | 2100 | 22100 (1984) | 2390 (1989) | 5600 | 2680 | 2800 | 3220 | 3650 | 4680 | 6330 | 6770 | 9250 | 12300 |
| 2026-04-27 01:15 | 2.70 | 1520 | 22100 (1984) | 2390 (1989) | 5600 | 2680 | 2800 | 3220 | 3650 | 4680 | 6330 | 6770 | 9250 | 12300 |
| 2026-04-27 00:15 | 2.50 | 1140 | 22100 (1984) | 2390 (1989) | 5600 | 2680 | 2800 | 3220 | 3650 | 4680 | 6330 | 6770 | 9250 | 12300 |
| 2026-04-26 23:15 | 2.41 | 986 | 22100 (1984) | 2390 (1989) | 5600 | 2680 | 2800 | 3220 | 3650 | 4680 | 6330 | 6770 | 9250 | 12300 |
| 2026-04-26 22:15 | 2.43 | 1020 | 20600 (1984) | 2020 (2002) | 5280 | 2480 | 2840 | 3320 | 3590 | 4910 | 6040 | 6490 | 7720 | 9010 |
| 2026-04-26 21:15 | 2.47 | 1090 | 20600 (1984) | 2020 (2002) | 5280 | 2480 | 2840 | 3320 | 3590 | 4910 | 6040 | 6490 | 7720 | 9010 |
| 2026-04-26 20:15 | 2.55 | 1230 | 20600 (1984) | 2020 (2002) | 5280 | 2480 | 2840 | 3320 | 3590 | 4910 | 6040 | 6490 | 7720 | 9010 |
| 2026-04-26 19:15 | 2.63 | 1380 | 20600 (1984) | 2020 (2002) | 5280 | 2480 | 2840 | 3320 | 3590 | 4910 | 6040 | 6490 | 7720 | 9010 |
| 2026-04-26 18:15 | 2.72 | 1570 | 20600 (1984) | 2020 (2002) | 5280 | 2480 | 2840 | 3320 | 3590 | 4910 | 6040 | 6490 | 7720 | 9010 |
| 2026-04-26 17:15 | 2.85 | 1860 | 20600 (1984) | 2020 (2002) | 5280 | 2480 | 2840 | 3320 | 3590 | 4910 | 6040 | 6490 | 7720 | 9010 |
| 2026-04-26 16:15 | 2.98 | 2170 | 20600 (1984) | 2020 (2002) | 5280 | 2480 | 2840 | 3320 | 3590 | 4910 | 6040 | 6490 | 7720 | 9010 |
| 2026-04-26 15:15 | 3.07 | 2410 | 20600 (1984) | 2020 (2002) | 5280 | 2480 | 2840 | 3320 | 3590 | 4910 | 6040 | 6490 | 7720 | 9010 |
| 2026-04-26 14:15 | 3.18 | 2710 | 20600 (1984) | 2020 (2002) | 5280 | 2480 | 2840 | 3320 | 3590 | 4910 | 6040 | 6490 | 7720 | 9010 |
| 2026-04-26 13:15 | 3.22 | 2830 | 20600 (1984) | 2020 (2002) | 5280 | 2480 | 2840 | 3320 | 3590 | 4910 | 6040 | 6490 | 7720 | 9010 |
| 2026-04-26 12:15 | 3.26 | 2950 | 20600 (1984) | 2020 (2002) | 5280 | 2480 | 2840 | 3320 | 3590 | 4910 | 6040 | 6490 | 7720 | 9010 |
| 2026-04-26 11:15 | 3.22 | 2830 | 20600 (1984) | 2020 (2002) | 5280 | 2480 | 2840 | 3320 | 3590 | 4910 | 6040 | 6490 | 7720 | 9010 |
| 2026-04-26 10:15 | 3.16 | 2660 | 20600 (1984) | 2020 (2002) | 5280 | 2480 | 2840 | 3320 | 3590 | 4910 | 6040 | 6490 | 7720 | 9010 |
| 2026-04-26 09:15 | 3.05 | 2350 | 20600 (1984) | 2020 (2002) | 5280 | 2480 | 2840 | 3320 | 3590 | 4910 | 6040 | 6490 | 7720 | 9010 |
| 2026-04-26 08:15 | 2.94 | 2070 | 20600 (1984) | 2020 (2002) | 5280 | 2480 | 2840 | 3320 | 3590 | 4910 | 6040 | 6490 | 7720 | 9010 |
| 2026-04-26 07:15 | 2.84 | 1830 | 20600 (1984) | 2020 (2002) | 5280 | 2480 | 2840 | 3320 | 3590 | 4910 | 6040 | 6490 | 7720 | 9010 |
| 2026-04-26 06:15 | 2.73 | 1590 | 20600 (1984) | 2020 (2002) | 5280 | 2480 | 2840 | 3320 | 3590 | 4910 | 6040 | 6490 | 7720 | 9010 |
| 2026-04-26 05:15 | 2.64 | 1400 | 20600 (1984) | 2020 (2002) | 5280 | 2480 | 2840 | 3320 | 3590 | 4910 | 6040 | 6490 | 7720 | 9010 |
| 2026-04-26 04:15 | 2.51 | 1160 | 20600 (1984) | 2020 (2002) | 5280 | 2480 | 2840 | 3320 | 3590 | 4910 | 6040 | 6490 | 7720 | 9010 |
| 2026-04-26 03:15 | 2.41 | 986 | 20600 (1984) | 2020 (2002) | 5280 | 2480 | 2840 | 3320 | 3590 | 4910 | 6040 | 6490 | 7720 | 9010 |
| 2026-04-26 02:15 | 2.34 | 875 | 20600 (1984) | 2020 (2002) | 5280 | 2480 | 2840 | 3320 | 3590 | 4910 | 6040 | 6490 | 7720 | 9010 |
| 2026-04-26 01:15 | 2.31 | 830 | 20600 (1984) | 2020 (2002) | 5280 | 2480 | 2840 | 3320 | 3590 | 4910 | 6040 | 6490 | 7720 | 9010 |
| 2026-04-26 00:15 | 2.32 | 845 | 20600 (1984) | 2020 (2002) | 5280 | 2480 | 2840 | 3320 | 3590 | 4910 | 6040 | 6490 | 7720 | 9010 |
| 2026-04-25 23:15 | 2.33 | 860 | 20600 (1984) | 2020 (2002) | 5280 | 2480 | 2840 | 3320 | 3590 | 4910 | 6040 | 6490 | 7720 | 9010 |
| 2026-04-25 22:15 | 2.38 | 938 | 22000 (1984) | 2210 (1967) | 5380 | 2570 | 2940 | 3560 | 3710 | 4910 | 6400 | 6730 | 7990 | 9820 |
| 2026-04-25 21:15 | 2.43 | 1020 | 22000 (1984) | 2210 (1967) | 5380 | 2570 | 2940 | 3560 | 3710 | 4910 | 6400 | 6730 | 7990 | 9820 |
| 2026-04-25 20:15 | 2.45 | 1050 | 22000 (1984) | 2210 (1967) | 5380 | 2570 | 2940 | 3560 | 3710 | 4910 | 6400 | 6730 | 7990 | 9820 |
| 2026-04-25 19:15 | 2.52 | 1170 | 22000 (1984) | 2210 (1967) | 5380 | 2570 | 2940 | 3560 | 3710 | 4910 | 6400 | 6730 | 7990 | 9820 |
| 2026-04-25 18:15 | 2.63 | 1380 | 22000 (1984) | 2210 (1967) | 5380 | 2570 | 2940 | 3560 | 3710 | 4910 | 6400 | 6730 | 7990 | 9820 |
| 2026-04-25 17:15 | 2.73 | 1590 | 22000 (1984) | 2210 (1967) | 5380 | 2570 | 2940 | 3560 | 3710 | 4910 | 6400 | 6730 | 7990 | 9820 |
| 2026-04-25 16:15 | 2.84 | 1830 | 22000 (1984) | 2210 (1967) | 5380 | 2570 | 2940 | 3560 | 3710 | 4910 | 6400 | 6730 | 7990 | 9820 |
| 2026-04-25 15:15 | 2.99 | 2200 | 22000 (1984) | 2210 (1967) | 5380 | 2570 | 2940 | 3560 | 3710 | 4910 | 6400 | 6730 | 7990 | 9820 |
| 2026-04-25 14:15 | 3.13 | 2570 | 22000 (1984) | 2210 (1967) | 5380 | 2570 | 2940 | 3560 | 3710 | 4910 | 6400 | 6730 | 7990 | 9820 |
| 2026-04-25 13:15 | 3.25 | 2920 | 22000 (1984) | 2210 (1967) | 5380 | 2570 | 2940 | 3560 | 3710 | 4910 | 6400 | 6730 | 7990 | 9820 |
| 2026-04-25 12:15 | 3.39 | 3360 | 22000 (1984) | 2210 (1967) | 5380 | 2570 | 2940 | 3560 | 3710 | 4910 | 6400 | 6730 | 7990 | 9820 |
| 2026-04-25 11:15 | 3.42 | 3450 | 22000 (1984) | 2210 (1967) | 5380 | 2570 | 2940 | 3560 | 3710 | 4910 | 6400 | 6730 | 7990 | 9820 |
| 2026-04-25 10:15 | 3.49 | 3690 | 22000 (1984) | 2210 (1967) | 5380 | 2570 | 2940 | 3560 | 3710 | 4910 | 6400 | 6730 | 7990 | 9820 |
| 2026-04-25 09:15 | 3.50 | 3720 | 22000 (1984) | 2210 (1967) | 5380 | 2570 | 2940 | 3560 | 3710 | 4910 | 6400 | 6730 | 7990 | 9820 |
| 2026-04-25 08:15 | 3.49 | 3690 | 22000 (1984) | 2210 (1967) | 5380 | 2570 | 2940 | 3560 | 3710 | 4910 | 6400 | 6730 | 7990 | 9820 |
| 2026-04-25 07:15 | 3.45 | 3550 | 22000 (1984) | 2210 (1967) | 5380 | 2570 | 2940 | 3560 | 3710 | 4910 | 6400 | 6730 | 7990 | 9820 |
| 2026-04-25 06:15 | 3.40 | 3390 | 22000 (1984) | 2210 (1967) | 5380 | 2570 | 2940 | 3560 | 3710 | 4910 | 6400 | 6730 | 7990 | 9820 |
| 2026-04-25 05:15 | 3.29 | 3040 | 22000 (1984) | 2210 (1967) | 5380 | 2570 | 2940 | 3560 | 3710 | 4910 | 6400 | 6730 | 7990 | 9820 |
| 2026-04-25 04:15 | 3.07 | 2410 | 22000 (1984) | 2210 (1967) | 5380 | 2570 | 2940 | 3560 | 3710 | 4910 | 6400 | 6730 | 7990 | 9820 |
| 2026-04-25 03:15 | 2.73 | 1590 | 22000 (1984) | 2210 (1967) | 5380 | 2570 | 2940 | 3560 | 3710 | 4910 | 6400 | 6730 | 7990 | 9820 |
| 2026-04-25 02:15 | 2.42 | 1000 | 22000 (1984) | 2210 (1967) | 5380 | 2570 | 2940 | 3560 | 3710 | 4910 | 6400 | 6730 | 7990 | 9820 |
| 2026-04-25 01:15 | 2.25 | 744 | 22000 (1984) | 2210 (1967) | 5380 | 2570 | 2940 | 3560 | 3710 | 4910 | 6400 | 6730 | 7990 | 9820 |
| 2026-04-25 00:15 | 2.18 | 650 | 22000 (1984) | 2210 (1967) | 5380 | 2570 | 2940 | 3560 | 3710 | 4910 | 6400 | 6730 | 7990 | 9820 |
| 2026-04-24 23:15 | 2.18 | 650 | 22000 (1984) | 2210 (1967) | 5380 | 2570 | 2940 | 3560 | 3710 | 4910 | 6400 | 6730 | 7990 | 9820 |
| 2026-04-24 22:15 | 2.20 | 676 | 24900 (1984) | 2230 (2006) | 5560 | 2470 | 2810 | 3390 | 3700 | 5100 | 6530 | 6770 | 8640 | 9680 |
| 2026-04-24 21:15 | 2.23 | 716 | 24900 (1984) | 2230 (2006) | 5560 | 2470 | 2810 | 3390 | 3700 | 5100 | 6530 | 6770 | 8640 | 9680 |
| 2026-04-24 20:15 | 2.27 | 772 | 24900 (1984) | 2230 (2006) | 5560 | 2470 | 2810 | 3390 | 3700 | 5100 | 6530 | 6770 | 8640 | 9680 |
| 2026-04-24 19:15 | 2.33 | 860 | 24900 (1984) | 2230 (2006) | 5560 | 2470 | 2810 | 3390 | 3700 | 5100 | 6530 | 6770 | 8640 | 9680 |
| 2026-04-24 18:15 | 2.40 | 970 | 24900 (1984) | 2230 (2006) | 5560 | 2470 | 2810 | 3390 | 3700 | 5100 | 6530 | 6770 | 8640 | 9680 |
| 2026-04-24 17:15 | 2.48 | 1100 | 24900 (1984) | 2230 (2006) | 5560 | 2470 | 2810 | 3390 | 3700 | 5100 | 6530 | 6770 | 8640 | 9680 |
| 2026-04-24 16:15 | 2.56 | 1250 | 24900 (1984) | 2230 (2006) | 5560 | 2470 | 2810 | 3390 | 3700 | 5100 | 6530 | 6770 | 8640 | 9680 |
| 2026-04-24 15:15 | 2.64 | 1400 | 24900 (1984) | 2230 (2006) | 5560 | 2470 | 2810 | 3390 | 3700 | 5100 | 6530 | 6770 | 8640 | 9680 |
| 2026-04-24 14:15 | 2.75 | 1630 | 24900 (1984) | 2230 (2006) | 5560 | 2470 | 2810 | 3390 | 3700 | 5100 | 6530 | 6770 | 8640 | 9680 |
| 2026-04-24 13:15 | 2.80 | 1740 | 24900 (1984) | 2230 (2006) | 5560 | 2470 | 2810 | 3390 | 3700 | 5100 | 6530 | 6770 | 8640 | 9680 |
| 2026-04-24 12:15 | 2.85 | 1860 | 24900 (1984) | 2230 (2006) | 5560 | 2470 | 2810 | 3390 | 3700 | 5100 | 6530 | 6770 | 8640 | 9680 |
| 2026-04-24 11:15 | 2.86 | 1880 | 24900 (1984) | 2230 (2006) | 5560 | 2470 | 2810 | 3390 | 3700 | 5100 | 6530 | 6770 | 8640 | 9680 |
| 2026-04-24 10:15 | 2.88 | 1930 | 24900 (1984) | 2230 (2006) | 5560 | 2470 | 2810 | 3390 | 3700 | 5100 | 6530 | 6770 | 8640 | 9680 |
| 2026-04-24 09:15 | 2.82 | 1790 | 24900 (1984) | 2230 (2006) | 5560 | 2470 | 2810 | 3390 | 3700 | 5100 | 6530 | 6770 | 8640 | 9680 |
| 2026-04-24 08:15 | 2.81 | 1760 | 24900 (1984) | 2230 (2006) | 5560 | 2470 | 2810 | 3390 | 3700 | 5100 | 6530 | 6770 | 8640 | 9680 |
| 2026-04-24 07:15 | 2.76 | 1650 | 24900 (1984) | 2230 (2006) | 5560 | 2470 | 2810 | 3390 | 3700 | 5100 | 6530 | 6770 | 8640 | 9680 |
| 2026-04-24 06:15 | 2.68 | 1480 | 24900 (1984) | 2230 (2006) | 5560 | 2470 | 2810 | 3390 | 3700 | 5100 | 6530 | 6770 | 8640 | 9680 |
| 2026-04-24 05:15 | 2.56 | 1250 | 24900 (1984) | 2230 (2006) | 5560 | 2470 | 2810 | 3390 | 3700 | 5100 | 6530 | 6770 | 8640 | 9680 |
| 2026-04-24 04:15 | 2.43 | 1020 | 24900 (1984) | 2230 (2006) | 5560 | 2470 | 2810 | 3390 | 3700 | 5100 | 6530 | 6770 | 8640 | 9680 |
| 2026-04-24 03:15 | 2.33 | 860 | 24900 (1984) | 2230 (2006) | 5560 | 2470 | 2810 | 3390 | 3700 | 5100 | 6530 | 6770 | 8640 | 9680 |
| 2026-04-24 02:15 | 2.25 | 744 | 24900 (1984) | 2230 (2006) | 5560 | 2470 | 2810 | 3390 | 3700 | 5100 | 6530 | 6770 | 8640 | 9680 |
| 2026-04-24 01:15 | 2.22 | 702 | 24900 (1984) | 2230 (2006) | 5560 | 2470 | 2810 | 3390 | 3700 | 5100 | 6530 | 6770 | 8640 | 9680 |
| 2026-04-24 00:15 | 2.22 | 702 | 24900 (1984) | 2230 (2006) | 5560 | 2470 | 2810 | 3390 | 3700 | 5100 | 6530 | 6770 | 8640 | 9680 |
| 2026-04-23 23:15 | 2.25 | 744 | 24900 (1984) | 2230 (2006) | 5560 | 2470 | 2810 | 3390 | 3700 | 5100 | 6530 | 6770 | 8640 | 9680 |
| 2026-04-23 22:15 | 2.29 | 801 | 31000 (1984) | 2100 (1989) | 5700 | 2340 | 2740 | 3450 | 3600 | 5320 | 6900 | 7470 | 8680 | 10400 |
| 2026-04-23 21:15 | 2.34 | 875 | 31000 (1984) | 2100 (1989) | 5700 | 2340 | 2740 | 3450 | 3600 | 5320 | 6900 | 7470 | 8680 | 10400 |
| 2026-04-23 20:15 | 2.42 | 1000 | 31000 (1984) | 2100 (1989) | 5700 | 2340 | 2740 | 3450 | 3600 | 5320 | 6900 | 7470 | 8680 | 10400 |
| 2026-04-23 19:15 | 2.50 | 1140 | 31000 (1984) | 2100 (1989) | 5700 | 2340 | 2740 | 3450 | 3600 | 5320 | 6900 | 7470 | 8680 | 10400 |
| 2026-04-23 18:15 | 2.59 | 1300 | 31000 (1984) | 2100 (1989) | 5700 | 2340 | 2740 | 3450 | 3600 | 5320 | 6900 | 7470 | 8680 | 10400 |
| 2026-04-23 17:15 | 2.73 | 1590 | 31000 (1984) | 2100 (1989) | 5700 | 2340 | 2740 | 3450 | 3600 | 5320 | 6900 | 7470 | 8680 | 10400 |
| 2026-04-23 16:15 | 2.82 | 1790 | 31000 (1984) | 2100 (1989) | 5700 | 2340 | 2740 | 3450 | 3600 | 5320 | 6900 | 7470 | 8680 | 10400 |
| 2026-04-23 15:15 | 2.90 | 1970 | 31000 (1984) | 2100 (1989) | 5700 | 2340 | 2740 | 3450 | 3600 | 5320 | 6900 | 7470 | 8680 | 10400 |
| 2026-04-23 14:15 | 2.92 | 2020 | 31000 (1984) | 2100 (1989) | 5700 | 2340 | 2740 | 3450 | 3600 | 5320 | 6900 | 7470 | 8680 | 10400 |
| 2026-04-23 13:15 | 2.86 | 1880 | 31000 (1984) | 2100 (1989) | 5700 | 2340 | 2740 | 3450 | 3600 | 5320 | 6900 | 7470 | 8680 | 10400 |
| 2026-04-23 12:15 | 2.82 | 1790 | 31000 (1984) | 2100 (1989) | 5700 | 2340 | 2740 | 3450 | 3600 | 5320 | 6900 | 7470 | 8680 | 10400 |
| 2026-04-23 11:15 | 2.77 | 1670 | 31000 (1984) | 2100 (1989) | 5700 | 2340 | 2740 | 3450 | 3600 | 5320 | 6900 | 7470 | 8680 | 10400 |
| 2026-04-23 10:15 | 2.74 | 1610 | 31000 (1984) | 2100 (1989) | 5700 | 2340 | 2740 | 3450 | 3600 | 5320 | 6900 | 7470 | 8680 | 10400 |
| 2026-04-23 09:15 | 2.84 | 1830 | 31000 (1984) | 2100 (1989) | 5700 | 2340 | 2740 | 3450 | 3600 | 5320 | 6900 | 7470 | 8680 | 10400 |
| 2026-04-23 08:15 | 2.91 | 2000 | 31000 (1984) | 2100 (1989) | 5700 | 2340 | 2740 | 3450 | 3600 | 5320 | 6900 | 7470 | 8680 | 10400 |
| 2026-04-23 07:15 | 3.04 | 2330 | 31000 (1984) | 2100 (1989) | 5700 | 2340 | 2740 | 3450 | 3600 | 5320 | 6900 | 7470 | 8680 | 10400 |
| 2026-04-23 06:15 | 3.11 | 2520 | 31000 (1984) | 2100 (1989) | 5700 | 2340 | 2740 | 3450 | 3600 | 5320 | 6900 | 7470 | 8680 | 10400 |
| 2026-04-23 05:15 | 3.14 | 2600 | 31000 (1984) | 2100 (1989) | 5700 | 2340 | 2740 | 3450 | 3600 | 5320 | 6900 | 7470 | 8680 | 10400 |
| 2026-04-23 04:15 | 3.07 | 2410 | 31000 (1984) | 2100 (1989) | 5700 | 2340 | 2740 | 3450 | 3600 | 5320 | 6900 | 7470 | 8680 | 10400 |
| 2026-04-23 03:15 | 2.91 | 2000 | 31000 (1984) | 2100 (1989) | 5700 | 2340 | 2740 | 3450 | 3600 | 5320 | 6900 | 7470 | 8680 | 10400 |
| 2026-04-23 02:15 | 2.65 | 1420 | 31000 (1984) | 2100 (1989) | 5700 | 2340 | 2740 | 3450 | 3600 | 5320 | 6900 | 7470 | 8680 | 10400 |
| 2026-04-23 01:15 | 2.46 | 1070 | 31000 (1984) | 2100 (1989) | 5700 | 2340 | 2740 | 3450 | 3600 | 5320 | 6900 | 7470 | 8680 | 10400 |
| 2026-04-23 00:15 | 2.36 | 906 | 31000 (1984) | 2100 (1989) | 5700 | 2340 | 2740 | 3450 | 3600 | 5320 | 6900 | 7470 | 8680 | 10400 |
| 2026-04-22 23:15 | 2.37 | 922 | 31000 (1984) | 2100 (1989) | 5700 | 2340 | 2740 | 3450 | 3600 | 5320 | 6900 | 7470 | 8680 | 10400 |
| 2026-04-22 22:15 | 2.41 | 986 | 29900 (1984) | 2240 (2006) | 5870 | 2450 | 2820 | 3680 | 3860 | 5160 | 6960 | 7610 | 8970 | 10600 |
| 2026-04-22 21:15 | 2.47 | 1090 | 29900 (1984) | 2240 (2006) | 5870 | 2450 | 2820 | 3680 | 3860 | 5160 | 6960 | 7610 | 8970 | 10600 |
| 2026-04-22 20:15 | 2.56 | 1250 | 29900 (1984) | 2240 (2006) | 5870 | 2450 | 2820 | 3680 | 3860 | 5160 | 6960 | 7610 | 8970 | 10600 |
| 2026-04-22 19:15 | 2.66 | 1440 | 29900 (1984) | 2240 (2006) | 5870 | 2450 | 2820 | 3680 | 3860 | 5160 | 6960 | 7610 | 8970 | 10600 |
| 2026-04-22 18:15 | 2.78 | 1700 | 29900 (1984) | 2240 (2006) | 5870 | 2450 | 2820 | 3680 | 3860 | 5160 | 6960 | 7610 | 8970 | 10600 |
| 2026-04-22 17:15 | 2.95 | 2100 | 29900 (1984) | 2240 (2006) | 5870 | 2450 | 2820 | 3680 | 3860 | 5160 | 6960 | 7610 | 8970 | 10600 |
| 2026-04-22 16:15 | 3.06 | 2380 | 29900 (1984) | 2240 (2006) | 5870 | 2450 | 2820 | 3680 | 3860 | 5160 | 6960 | 7610 | 8970 | 10600 |
| 2026-04-22 15:15 | 3.24 | 2890 | 29900 (1984) | 2240 (2006) | 5870 | 2450 | 2820 | 3680 | 3860 | 5160 | 6960 | 7610 | 8970 | 10600 |
| 2026-04-22 14:15 | 3.39 | 3360 | 29900 (1984) | 2240 (2006) | 5870 | 2450 | 2820 | 3680 | 3860 | 5160 | 6960 | 7610 | 8970 | 10600 |
| 2026-04-22 13:15 | 3.51 | 3760 | 29900 (1984) | 2240 (2006) | 5870 | 2450 | 2820 | 3680 | 3860 | 5160 | 6960 | 7610 | 8970 | 10600 |
| 2026-04-22 12:15 | 3.61 | 4110 | 29900 (1984) | 2240 (2006) | 5870 | 2450 | 2820 | 3680 | 3860 | 5160 | 6960 | 7610 | 8970 | 10600 |
| 2026-04-22 11:15 | 3.63 | 4190 | 29900 (1984) | 2240 (2006) | 5870 | 2450 | 2820 | 3680 | 3860 | 5160 | 6960 | 7610 | 8970 | 10600 |
| 2026-04-22 10:15 | 3.69 | 4800 | 29900 (1984) | 2240 (2006) | 5870 | 2450 | 2820 | 3680 | 3860 | 5160 | 6960 | 7610 | 8970 | 10600 |
| 2026-04-22 09:15 | 3.74 | 5000 | 29900 (1984) | 2240 (2006) | 5870 | 2450 | 2820 | 3680 | 3860 | 5160 | 6960 | 7610 | 8970 | 10600 |
| 2026-04-22 08:15 | 3.73 | 4960 | 29900 (1984) | 2240 (2006) | 5870 | 2450 | 2820 | 3680 | 3860 | 5160 | 6960 | 7610 | 8970 | 10600 |
| 2026-04-22 07:15 | 3.74 | 5000 | 29900 (1984) | 2240 (2006) | 5870 | 2450 | 2820 | 3680 | 3860 | 5160 | 6960 | 7610 | 8970 | 10600 |
| 2026-04-22 06:15 | 3.67 | 4720 | 29900 (1984) | 2240 (2006) | 5870 | 2450 | 2820 | 3680 | 3860 | 5160 | 6960 | 7610 | 8970 | 10600 |
| 2026-04-22 05:15 | 3.58 | 4370 | 29900 (1984) | 2240 (2006) | 5870 | 2450 | 2820 | 3680 | 3860 | 5160 | 6960 | 7610 | 8970 | 10600 |
| 2026-04-22 04:15 | 3.50 | 4080 | 29900 (1984) | 2240 (2006) | 5870 | 2450 | 2820 | 3680 | 3860 | 5160 | 6960 | 7610 | 8970 | 10600 |
| 2026-04-22 03:15 | 3.35 | 3550 | 29900 (1984) | 2240 (2006) | 5870 | 2450 | 2820 | 3680 | 3860 | 5160 | 6960 | 7610 | 8970 | 10600 |
| 2026-04-22 02:15 | 3.19 | 3040 | 29900 (1984) | 2240 (2006) | 5870 | 2450 | 2820 | 3680 | 3860 | 5160 | 6960 | 7610 | 8970 | 10600 |
| 2026-04-22 01:15 | 2.88 | 2170 | 29900 (1984) | 2240 (2006) | 5870 | 2450 | 2820 | 3680 | 3860 | 5160 | 6960 | 7610 | 8970 | 10600 |
| 2026-04-22 00:15 | 2.58 | 1480 | 29900 (1984) | 2240 (2006) | 5870 | 2450 | 2820 | 3680 | 3860 | 5160 | 6960 | 7610 | 8970 | 10600 |
| 2026-04-21 23:15 | 2.41 | 1160 | 29900 (1984) | 2240 (2006) | 5870 | 2450 | 2820 | 3680 | 3860 | 5160 | 6960 | 7610 | 8970 | 10600 |
| 2026-04-21 22:15 | 2.34 | 1040 | 13300 (1993) | 2130 (2004) | 5520 | 2400 | 2850 | 3460 | 3830 | 4820 | 6710 | 7140 | 8810 | 11100 |
| 2026-04-21 21:15 | 2.34 | 1040 | 13300 (1993) | 2130 (2004) | 5520 | 2400 | 2850 | 3460 | 3830 | 4820 | 6710 | 7140 | 8810 | 11100 |
| 2026-04-21 20:15 | 2.39 | 1120 | 13300 (1993) | 2130 (2004) | 5520 | 2400 | 2850 | 3460 | 3830 | 4820 | 6710 | 7140 | 8810 | 11100 |
| 2026-04-21 19:15 | 2.45 | 1230 | 13300 (1993) | 2130 (2004) | 5520 | 2400 | 2850 | 3460 | 3830 | 4820 | 6710 | 7140 | 8810 | 11100 |
| 2026-04-21 18:15 | 2.52 | 1360 | 13300 (1993) | 2130 (2004) | 5520 | 2400 | 2850 | 3460 | 3830 | 4820 | 6710 | 7140 | 8810 | 11100 |
| 2026-04-21 17:15 | 2.61 | 1550 | 13300 (1993) | 2130 (2004) | 5520 | 2400 | 2850 | 3460 | 3830 | 4820 | 6710 | 7140 | 8810 | 11100 |
| 2026-04-21 16:15 | 2.69 | 1720 | 13300 (1993) | 2130 (2004) | 5520 | 2400 | 2850 | 3460 | 3830 | 4820 | 6710 | 7140 | 8810 | 11100 |
| 2026-04-21 15:15 | 2.79 | 1950 | 13300 (1993) | 2130 (2004) | 5520 | 2400 | 2850 | 3460 | 3830 | 4820 | 6710 | 7140 | 8810 | 11100 |
| 2026-04-21 14:15 | 2.83 | 2050 | 13300 (1993) | 2130 (2004) | 5520 | 2400 | 2850 | 3460 | 3830 | 4820 | 6710 | 7140 | 8810 | 11100 |
| 2026-04-21 13:15 | 2.89 | 2200 | 13300 (1993) | 2130 (2004) | 5520 | 2400 | 2850 | 3460 | 3830 | 4820 | 6710 | 7140 | 8810 | 11100 |
| 2026-04-21 12:15 | 2.89 | 2200 | 13300 (1993) | 2130 (2004) | 5520 | 2400 | 2850 | 3460 | 3830 | 4820 | 6710 | 7140 | 8810 | 11100 |
| 2026-04-21 11:15 | 2.88 | 2170 | 13300 (1993) | 2130 (2004) | 5520 | 2400 | 2850 | 3460 | 3830 | 4820 | 6710 | 7140 | 8810 | 11100 |
| 2026-04-21 10:15 | 2.89 | 2200 | 13300 (1993) | 2130 (2004) | 5520 | 2400 | 2850 | 3460 | 3830 | 4820 | 6710 | 7140 | 8810 | 11100 |
| 2026-04-21 09:15 | 2.88 | 2170 | 13300 (1993) | 2130 (2004) | 5520 | 2400 | 2850 | 3460 | 3830 | 4820 | 6710 | 7140 | 8810 | 11100 |
| 2026-04-21 08:15 | 2.85 | 2100 | 13300 (1993) | 2130 (2004) | 5520 | 2400 | 2850 | 3460 | 3830 | 4820 | 6710 | 7140 | 8810 | 11100 |
| 2026-04-21 07:15 | 2.82 | 2020 | 13300 (1993) | 2130 (2004) | 5520 | 2400 | 2850 | 3460 | 3830 | 4820 | 6710 | 7140 | 8810 | 11100 |
| 2026-04-21 06:15 | 2.79 | 1950 | 13300 (1993) | 2130 (2004) | 5520 | 2400 | 2850 | 3460 | 3830 | 4820 | 6710 | 7140 | 8810 | 11100 |
| 2026-04-21 05:15 | 2.72 | 1790 | 13300 (1993) | 2130 (2004) | 5520 | 2400 | 2850 | 3460 | 3830 | 4820 | 6710 | 7140 | 8810 | 11100 |
| 2026-04-21 04:15 | 2.63 | 1590 | 13300 (1993) | 2130 (2004) | 5520 | 2400 | 2850 | 3460 | 3830 | 4820 | 6710 | 7140 | 8810 | 11100 |
| 2026-04-21 03:15 | 2.55 | 1420 | 13300 (1993) | 2130 (2004) | 5520 | 2400 | 2850 | 3460 | 3830 | 4820 | 6710 | 7140 | 8810 | 11100 |
| 2026-04-21 02:15 | 2.44 | 1210 | 13300 (1993) | 2130 (2004) | 5520 | 2400 | 2850 | 3460 | 3830 | 4820 | 6710 | 7140 | 8810 | 11100 |
| 2026-04-21 01:15 | 2.39 | 1120 | 13300 (1993) | 2130 (2004) | 5520 | 2400 | 2850 | 3460 | 3830 | 4820 | 6710 | 7140 | 8810 | 11100 |
| 2026-04-21 00:15 | 2.35 | 1050 | 13300 (1993) | 2130 (2004) | 5520 | 2400 | 2850 | 3460 | 3830 | 4820 | 6710 | 7140 | 8810 | 11100 |
| 2026-04-20 23:15 | 2.39 | 1120 | 13300 (1993) | 2130 (2004) | 5520 | 2400 | 2850 | 3460 | 3830 | 4820 | 6710 | 7140 | 8810 | 11100 |
| 2026-04-20 22:15 | 2.45 | 1230 | 12300 (2016) | 1230 (2022) | 5520 | 2310 | 2610 | 3420 | 3590 | 4980 | 6650 | 7420 | 9420 | 10700 |
| 2026-04-20 21:15 | 2.52 | 1360 | 12300 (2016) | 1230 (2022) | 5520 | 2310 | 2610 | 3420 | 3590 | 4980 | 6650 | 7420 | 9420 | 10700 |
| 2026-04-20 20:15 | 2.60 | 1520 | 12300 (2016) | 1230 (2022) | 5520 | 2310 | 2610 | 3420 | 3590 | 4980 | 6650 | 7420 | 9420 | 10700 |
| 2026-04-20 19:15 | 2.73 | 1810 | 12300 (2016) | 1230 (2022) | 5520 | 2310 | 2610 | 3420 | 3590 | 4980 | 6650 | 7420 | 9420 | 10700 |
| 2026-04-20 18:15 | 2.86 | 2120 | 12300 (2016) | 1230 (2022) | 5520 | 2310 | 2610 | 3420 | 3590 | 4980 | 6650 | 7420 | 9420 | 10700 |
| 2026-04-20 17:15 | 2.98 | 2430 | 12300 (2016) | 1230 (2022) | 5520 | 2310 | 2610 | 3420 | 3590 | 4980 | 6650 | 7420 | 9420 | 10700 |
| 2026-04-20 16:15 | 3.14 | 2890 | 12300 (2016) | 1230 (2022) | 5520 | 2310 | 2610 | 3420 | 3590 | 4980 | 6650 | 7420 | 9420 | 10700 |
| 2026-04-20 15:15 | 3.27 | 3290 | 12300 (2016) | 1230 (2022) | 5520 | 2310 | 2610 | 3420 | 3590 | 4980 | 6650 | 7420 | 9420 | 10700 |
| 2026-04-20 14:15 | 3.38 | 3660 | 12300 (2016) | 1230 (2022) | 5520 | 2310 | 2610 | 3420 | 3590 | 4980 | 6650 | 7420 | 9420 | 10700 |
| 2026-04-20 13:15 | 3.46 | 3930 | 12300 (2016) | 1230 (2022) | 5520 | 2310 | 2610 | 3420 | 3590 | 4980 | 6650 | 7420 | 9420 | 10700 |
| 2026-04-20 12:15 | 3.52 | 4150 | 12300 (2016) | 1230 (2022) | 5520 | 2310 | 2610 | 3420 | 3590 | 4980 | 6650 | 7420 | 9420 | 10700 |
| 2026-04-20 11:15 | 3.57 | 4330 | 12300 (2016) | 1230 (2022) | 5520 | 2310 | 2610 | 3420 | 3590 | 4980 | 6650 | 7420 | 9420 | 10700 |
| 2026-04-20 10:15 | 3.57 | 4330 | 12300 (2016) | 1230 (2022) | 5520 | 2310 | 2610 | 3420 | 3590 | 4980 | 6650 | 7420 | 9420 | 10700 |
| 2026-04-20 09:15 | 3.58 | 4370 | 12300 (2016) | 1230 (2022) | 5520 | 2310 | 2610 | 3420 | 3590 | 4980 | 6650 | 7420 | 9420 | 10700 |
| 2026-04-20 08:15 | 3.57 | 4330 | 12300 (2016) | 1230 (2022) | 5520 | 2310 | 2610 | 3420 | 3590 | 4980 | 6650 | 7420 | 9420 | 10700 |
| 2026-04-20 07:15 | 3.49 | 4040 | 12300 (2016) | 1230 (2022) | 5520 | 2310 | 2610 | 3420 | 3590 | 4980 | 6650 | 7420 | 9420 | 10700 |
| 2026-04-20 06:15 | 3.47 | 3970 | 12300 (2016) | 1230 (2022) | 5520 | 2310 | 2610 | 3420 | 3590 | 4980 | 6650 | 7420 | 9420 | 10700 |
| 2026-04-20 05:15 | 3.39 | 3690 | 12300 (2016) | 1230 (2022) | 5520 | 2310 | 2610 | 3420 | 3590 | 4980 | 6650 | 7420 | 9420 | 10700 |
| 2026-04-20 04:15 | 3.23 | 3160 | 12300 (2016) | 1230 (2022) | 5520 | 2310 | 2610 | 3420 | 3590 | 4980 | 6650 | 7420 | 9420 | 10700 |
| 2026-04-20 03:15 | 3.01 | 2520 | 12300 (2016) | 1230 (2022) | 5520 | 2310 | 2610 | 3420 | 3590 | 4980 | 6650 | 7420 | 9420 | 10700 |
| 2026-04-20 02:15 | 2.76 | 1880 | 12300 (2016) | 1230 (2022) | 5520 | 2310 | 2610 | 3420 | 3590 | 4980 | 6650 | 7420 | 9420 | 10700 |
| 2026-04-20 01:15 | 2.60 | 1520 | 12300 (2016) | 1230 (2022) | 5520 | 2310 | 2610 | 3420 | 3590 | 4980 | 6650 | 7420 | 9420 | 10700 |
| 2026-04-20 00:15 | 2.52 | 1360 | 12300 (2016) | 1230 (2022) | 5520 | 2310 | 2610 | 3420 | 3590 | 4980 | 6650 | 7420 | 9420 | 10700 |
| 2026-04-19 23:15 | 2.50 | 1320 | 12300 (2016) | 1230 (2022) | 5520 | 2310 | 2610 | 3420 | 3590 | 4980 | 6650 | 7420 | 9420 | 10700 |
| 2026-04-19 22:15 | 2.53 | 1380 | 14400 (2016) | 2190 (2004) | 5470 | 2620 | 2840 | 3480 | 3650 | 4760 | 6690 | 6980 | 9670 | 10700 |
| 2026-04-19 21:15 | 2.58 | 1480 | 14400 (2016) | 2190 (2004) | 5470 | 2620 | 2840 | 3480 | 3650 | 4760 | 6690 | 6980 | 9670 | 10700 |
| 2026-04-19 20:15 | 2.67 | 1670 | 14400 (2016) | 2190 (2004) | 5470 | 2620 | 2840 | 3480 | 3650 | 4760 | 6690 | 6980 | 9670 | 10700 |
| 2026-04-19 19:15 | 2.78 | 1930 | 14400 (2016) | 2190 (2004) | 5470 | 2620 | 2840 | 3480 | 3650 | 4760 | 6690 | 6980 | 9670 | 10700 |
| 2026-04-19 18:15 | 2.91 | 2250 | 14400 (2016) | 2190 (2004) | 5470 | 2620 | 2840 | 3480 | 3650 | 4760 | 6690 | 6980 | 9670 | 10700 |
| 2026-04-19 17:15 | 3.05 | 2630 | 14400 (2016) | 2190 (2004) | 5470 | 2620 | 2840 | 3480 | 3650 | 4760 | 6690 | 6980 | 9670 | 10700 |
| 2026-04-19 16:15 | 3.18 | 3010 | 14400 (2016) | 2190 (2004) | 5470 | 2620 | 2840 | 3480 | 3650 | 4760 | 6690 | 6980 | 9670 | 10700 |
| 2026-04-19 15:15 | 3.26 | 3260 | 14400 (2016) | 2190 (2004) | 5470 | 2620 | 2840 | 3480 | 3650 | 4760 | 6690 | 6980 | 9670 | 10700 |
| 2026-04-19 14:15 | 3.29 | 3360 | 14400 (2016) | 2190 (2004) | 5470 | 2620 | 2840 | 3480 | 3650 | 4760 | 6690 | 6980 | 9670 | 10700 |
| 2026-04-19 13:15 | 3.27 | 3290 | 14400 (2016) | 2190 (2004) | 5470 | 2620 | 2840 | 3480 | 3650 | 4760 | 6690 | 6980 | 9670 | 10700 |
| 2026-04-19 12:15 | 3.26 | 3260 | 14400 (2016) | 2190 (2004) | 5470 | 2620 | 2840 | 3480 | 3650 | 4760 | 6690 | 6980 | 9670 | 10700 |
| 2026-04-19 11:15 | 3.21 | 3100 | 14400 (2016) | 2190 (2004) | 5470 | 2620 | 2840 | 3480 | 3650 | 4760 | 6690 | 6980 | 9670 | 10700 |
| 2026-04-19 10:15 | 3.17 | 2980 | 14400 (2016) | 2190 (2004) | 5470 | 2620 | 2840 | 3480 | 3650 | 4760 | 6690 | 6980 | 9670 | 10700 |
| 2026-04-19 09:15 | 3.14 | 2890 | 14400 (2016) | 2190 (2004) | 5470 | 2620 | 2840 | 3480 | 3650 | 4760 | 6690 | 6980 | 9670 | 10700 |
| 2026-04-19 08:15 | 3.18 | 3010 | 14400 (2016) | 2190 (2004) | 5470 | 2620 | 2840 | 3480 | 3650 | 4760 | 6690 | 6980 | 9670 | 10700 |
| 2026-04-19 07:15 | 3.23 | 3160 | 14400 (2016) | 2190 (2004) | 5470 | 2620 | 2840 | 3480 | 3650 | 4760 | 6690 | 6980 | 9670 | 10700 |
| 2026-04-19 06:15 | 3.30 | 3390 | 14400 (2016) | 2190 (2004) | 5470 | 2620 | 2840 | 3480 | 3650 | 4760 | 6690 | 6980 | 9670 | 10700 |
| 2026-04-19 05:15 | 3.34 | 3520 | 14400 (2016) | 2190 (2004) | 5470 | 2620 | 2840 | 3480 | 3650 | 4760 | 6690 | 6980 | 9670 | 10700 |
| 2026-04-19 04:15 | 3.38 | 3660 | 14400 (2016) | 2190 (2004) | 5470 | 2620 | 2840 | 3480 | 3650 | 4760 | 6690 | 6980 | 9670 | 10700 |
| 2026-04-19 03:15 | 3.38 | 3660 | 14400 (2016) | 2190 (2004) | 5470 | 2620 | 2840 | 3480 | 3650 | 4760 | 6690 | 6980 | 9670 | 10700 |
| 2026-04-19 02:15 | 3.32 | 3450 | 14400 (2016) | 2190 (2004) | 5470 | 2620 | 2840 | 3480 | 3650 | 4760 | 6690 | 6980 | 9670 | 10700 |
| 2026-04-19 01:15 | 3.22 | 3130 | 14400 (2016) | 2190 (2004) | 5470 | 2620 | 2840 | 3480 | 3650 | 4760 | 6690 | 6980 | 9670 | 10700 |
| 2026-04-19 00:15 | 3.03 | 2570 | 14400 (2016) | 2190 (2004) | 5470 | 2620 | 2840 | 3480 | 3650 | 4760 | 6690 | 6980 | 9670 | 10700 |
| 2026-04-18 23:15 | 2.83 | 2050 | 14400 (2016) | 2190 (2004) | 5470 | 2620 | 2840 | 3480 | 3650 | 4760 | 6690 | 6980 | 9670 | 10700 |
| 2026-04-18 22:15 | 2.70 | 1740 | 12600 (1978) | 1670 (1989) | 5440 | 2420 | 2860 | 3590 | 3630 | 4680 | 6450 | 7070 | 9900 | 11300 |
| 2026-04-18 21:15 | 2.64 | 1610 | 12600 (1978) | 1670 (1989) | 5440 | 2420 | 2860 | 3590 | 3630 | 4680 | 6450 | 7070 | 9900 | 11300 |
| 2026-04-18 20:15 | 2.65 | 1630 | 12600 (1978) | 1670 (1989) | 5440 | 2420 | 2860 | 3590 | 3630 | 4680 | 6450 | 7070 | 9900 | 11300 |
| 2026-04-18 19:15 | 2.71 | 1760 | 12600 (1978) | 1670 (1989) | 5440 | 2420 | 2860 | 3590 | 3630 | 4680 | 6450 | 7070 | 9900 | 11300 |
| 2026-04-18 18:15 | 2.76 | 1880 | 12600 (1978) | 1670 (1989) | 5440 | 2420 | 2860 | 3590 | 3630 | 4680 | 6450 | 7070 | 9900 | 11300 |
| 2026-04-18 17:15 | 2.82 | 2020 | 12600 (1978) | 1670 (1989) | 5440 | 2420 | 2860 | 3590 | 3630 | 4680 | 6450 | 7070 | 9900 | 11300 |
| 2026-04-18 16:15 | 2.86 | 2120 | 12600 (1978) | 1670 (1989) | 5440 | 2420 | 2860 | 3590 | 3630 | 4680 | 6450 | 7070 | 9900 | 11300 |
| 2026-04-18 15:15 | 2.89 | 2200 | 12600 (1978) | 1670 (1989) | 5440 | 2420 | 2860 | 3590 | 3630 | 4680 | 6450 | 7070 | 9900 | 11300 |
| 2026-04-18 14:15 | 2.88 | 2170 | 12600 (1978) | 1670 (1989) | 5440 | 2420 | 2860 | 3590 | 3630 | 4680 | 6450 | 7070 | 9900 | 11300 |
| 2026-04-18 13:15 | 2.87 | 2150 | 12600 (1978) | 1670 (1989) | 5440 | 2420 | 2860 | 3590 | 3630 | 4680 | 6450 | 7070 | 9900 | 11300 |
| 2026-04-18 12:15 | 2.83 | 2050 | 12600 (1978) | 1670 (1989) | 5440 | 2420 | 2860 | 3590 | 3630 | 4680 | 6450 | 7070 | 9900 | 11300 |
| 2026-04-18 11:15 | 2.76 | 1880 | 12600 (1978) | 1670 (1989) | 5440 | 2420 | 2860 | 3590 | 3630 | 4680 | 6450 | 7070 | 9900 | 11300 |
| 2026-04-18 10:15 | 2.70 | 1740 | 12600 (1978) | 1670 (1989) | 5440 | 2420 | 2860 | 3590 | 3630 | 4680 | 6450 | 7070 | 9900 | 11300 |
| 2026-04-18 09:15 | 2.61 | 1550 | 12600 (1978) | 1670 (1989) | 5440 | 2420 | 2860 | 3590 | 3630 | 4680 | 6450 | 7070 | 9900 | 11300 |
| 2026-04-18 08:15 | 2.50 | 1320 | 12600 (1978) | 1670 (1989) | 5440 | 2420 | 2860 | 3590 | 3630 | 4680 | 6450 | 7070 | 9900 | 11300 |
| 2026-04-18 07:15 | 2.41 | 1160 | 12600 (1978) | 1670 (1989) | 5440 | 2420 | 2860 | 3590 | 3630 | 4680 | 6450 | 7070 | 9900 | 11300 |
| 2026-04-18 06:15 | 2.33 | 1020 | 12600 (1978) | 1670 (1989) | 5440 | 2420 | 2860 | 3590 | 3630 | 4680 | 6450 | 7070 | 9900 | 11300 |
| 2026-04-18 05:15 | 2.28 | 938 | 12600 (1978) | 1670 (1989) | 5440 | 2420 | 2860 | 3590 | 3630 | 4680 | 6450 | 7070 | 9900 | 11300 |
| 2026-04-18 04:15 | 2.26 | 906 | 12600 (1978) | 1670 (1989) | 5440 | 2420 | 2860 | 3590 | 3630 | 4680 | 6450 | 7070 | 9900 | 11300 |
| 2026-04-18 03:15 | 2.25 | 891 | 12600 (1978) | 1670 (1989) | 5440 | 2420 | 2860 | 3590 | 3630 | 4680 | 6450 | 7070 | 9900 | 11300 |
| 2026-04-18 02:15 | 2.25 | 891 | 12600 (1978) | 1670 (1989) | 5440 | 2420 | 2860 | 3590 | 3630 | 4680 | 6450 | 7070 | 9900 | 11300 |
| 2026-04-18 01:15 | 2.25 | 891 | 12600 (1978) | 1670 (1989) | 5440 | 2420 | 2860 | 3590 | 3630 | 4680 | 6450 | 7070 | 9900 | 11300 |
| 2026-04-18 00:15 | 2.26 | 906 | 12600 (1978) | 1670 (1989) | 5440 | 2420 | 2860 | 3590 | 3630 | 4680 | 6450 | 7070 | 9900 | 11300 |
| 2026-04-17 23:15 | 2.28 | 938 | 12600 (1978) | 1670 (1989) | 5440 | 2420 | 2860 | 3590 | 3630 | 4680 | 6450 | 7070 | 9900 | 11300 |
| 2026-04-17 22:15 | 2.29 | 954 | 12900 (1978) | 2200 (2004) | 5610 | 2910 | 3100 | 3770 | 3960 | 4660 | 6590 | 7490 | 10100 | 12200 |
| 2026-04-17 21:15 | 2.31 | 986 | 12900 (1978) | 2200 (2004) | 5610 | 2910 | 3100 | 3770 | 3960 | 4660 | 6590 | 7490 | 10100 | 12200 |
| 2026-04-17 20:15 | 2.35 | 1050 | 12900 (1978) | 2200 (2004) | 5610 | 2910 | 3100 | 3770 | 3960 | 4660 | 6590 | 7490 | 10100 | 12200 |
| 2026-04-17 19:15 | 2.41 | 1160 | 12900 (1978) | 2200 (2004) | 5610 | 2910 | 3100 | 3770 | 3960 | 4660 | 6590 | 7490 | 10100 | 12200 |
| 2026-04-17 18:15 | 2.45 | 1230 | 12900 (1978) | 2200 (2004) | 5610 | 2910 | 3100 | 3770 | 3960 | 4660 | 6590 | 7490 | 10100 | 12200 |
| 2026-04-17 17:15 | 2.54 | 1400 | 12900 (1978) | 2200 (2004) | 5610 | 2910 | 3100 | 3770 | 3960 | 4660 | 6590 | 7490 | 10100 | 12200 |
| 2026-04-17 16:15 | 2.64 | 1610 | 12900 (1978) | 2200 (2004) | 5610 | 2910 | 3100 | 3770 | 3960 | 4660 | 6590 | 7490 | 10100 | 12200 |
| 2026-04-17 15:15 | 2.75 | 1860 | 12900 (1978) | 2200 (2004) | 5610 | 2910 | 3100 | 3770 | 3960 | 4660 | 6590 | 7490 | 10100 | 12200 |
| 2026-04-17 14:15 | 2.86 | 2120 | 12900 (1978) | 2200 (2004) | 5610 | 2910 | 3100 | 3770 | 3960 | 4660 | 6590 | 7490 | 10100 | 12200 |
| 2026-04-17 13:15 | 3.01 | 2520 | 12900 (1978) | 2200 (2004) | 5610 | 2910 | 3100 | 3770 | 3960 | 4660 | 6590 | 7490 | 10100 | 12200 |
| 2026-04-17 12:15 | 3.13 | 2860 | 12900 (1978) | 2200 (2004) | 5610 | 2910 | 3100 | 3770 | 3960 | 4660 | 6590 | 7490 | 10100 | 12200 |
| 2026-04-17 11:15 | 3.23 | 3160 | 12900 (1978) | 2200 (2004) | 5610 | 2910 | 3100 | 3770 | 3960 | 4660 | 6590 | 7490 | 10100 | 12200 |
| 2026-04-17 10:15 | 3.31 | 3420 | 12900 (1978) | 2200 (2004) | 5610 | 2910 | 3100 | 3770 | 3960 | 4660 | 6590 | 7490 | 10100 | 12200 |
| 2026-04-17 09:15 | 3.38 | 3660 | 12900 (1978) | 2200 (2004) | 5610 | 2910 | 3100 | 3770 | 3960 | 4660 | 6590 | 7490 | 10100 | 12200 |
| 2026-04-17 08:15 | 3.43 | 3830 | 12900 (1978) | 2200 (2004) | 5610 | 2910 | 3100 | 3770 | 3960 | 4660 | 6590 | 7490 | 10100 | 12200 |
| 2026-04-17 07:15 | 3.44 | 3860 | 12900 (1978) | 2200 (2004) | 5610 | 2910 | 3100 | 3770 | 3960 | 4660 | 6590 | 7490 | 10100 | 12200 |
| 2026-04-17 06:15 | 3.40 | 3720 | 12900 (1978) | 2200 (2004) | 5610 | 2910 | 3100 | 3770 | 3960 | 4660 | 6590 | 7490 | 10100 | 12200 |
| 2026-04-17 05:15 | 3.30 | 3390 | 12900 (1978) | 2200 (2004) | 5610 | 2910 | 3100 | 3770 | 3960 | 4660 | 6590 | 7490 | 10100 | 12200 |
| 2026-04-17 04:15 | 3.07 | 2690 | 12900 (1978) | 2200 (2004) | 5610 | 2910 | 3100 | 3770 | 3960 | 4660 | 6590 | 7490 | 10100 | 12200 |
| 2026-04-17 03:15 | 2.74 | 1830 | 12900 (1978) | 2200 (2004) | 5610 | 2910 | 3100 | 3770 | 3960 | 4660 | 6590 | 7490 | 10100 | 12200 |
| 2026-04-17 02:15 | 2.48 | 1290 | 12900 (1978) | 2200 (2004) | 5610 | 2910 | 3100 | 3770 | 3960 | 4660 | 6590 | 7490 | 10100 | 12200 |
| 2026-04-17 01:15 | 2.36 | 1070 | 12900 (1978) | 2200 (2004) | 5610 | 2910 | 3100 | 3770 | 3960 | 4660 | 6590 | 7490 | 10100 | 12200 |
| 2026-04-17 00:15 | 2.31 | 986 | 12900 (1978) | 2200 (2004) | 5610 | 2910 | 3100 | 3770 | 3960 | 4660 | 6590 | 7490 | 10100 | 12200 |
| 2026-04-16 23:15 | 2.34 | 1040 | 12900 (1978) | 2200 (2004) | 5610 | 2910 | 3100 | 3770 | 3960 | 4660 | 6590 | 7490 | 10100 | 12200 |
| 2026-04-16 22:15 | 2.38 | 1100 | 16300 (1999) | 2280 (2023) | 5760 | 2650 | 3020 | 3550 | 3880 | 4800 | 6640 | 7590 | 10300 | 12800 |
| 2026-04-16 21:15 | 2.43 | 1190 | 16300 (1999) | 2280 (2023) | 5760 | 2650 | 3020 | 3550 | 3880 | 4800 | 6640 | 7590 | 10300 | 12800 |
| 2026-04-16 20:15 | 2.49 | 1300 | 16300 (1999) | 2280 (2023) | 5760 | 2650 | 3020 | 3550 | 3880 | 4800 | 6640 | 7590 | 10300 | 12800 |
| 2026-04-16 19:15 | 2.58 | 1480 | 16300 (1999) | 2280 (2023) | 5760 | 2650 | 3020 | 3550 | 3880 | 4800 | 6640 | 7590 | 10300 | 12800 |
| 2026-04-16 18:15 | 2.69 | 1720 | 16300 (1999) | 2280 (2023) | 5760 | 2650 | 3020 | 3550 | 3880 | 4800 | 6640 | 7590 | 10300 | 12800 |
| 2026-04-16 17:15 | 2.83 | 2050 | 16300 (1999) | 2280 (2023) | 5760 | 2650 | 3020 | 3550 | 3880 | 4800 | 6640 | 7590 | 10300 | 12800 |
| 2026-04-16 16:15 | 2.99 | 2460 | 16300 (1999) | 2280 (2023) | 5760 | 2650 | 3020 | 3550 | 3880 | 4800 | 6640 | 7590 | 10300 | 12800 |
| 2026-04-16 15:15 | 3.15 | 2920 | 16300 (1999) | 2280 (2023) | 5760 | 2650 | 3020 | 3550 | 3880 | 4800 | 6640 | 7590 | 10300 | 12800 |
| 2026-04-16 14:15 | 3.28 | 3320 | 16300 (1999) | 2280 (2023) | 5760 | 2650 | 3020 | 3550 | 3880 | 4800 | 6640 | 7590 | 10300 | 12800 |
| 2026-04-16 13:15 | 3.40 | 3720 | 16300 (1999) | 2280 (2023) | 5760 | 2650 | 3020 | 3550 | 3880 | 4800 | 6640 | 7590 | 10300 | 12800 |
| 2026-04-16 12:15 | 3.46 | 3930 | 16300 (1999) | 2280 (2023) | 5760 | 2650 | 3020 | 3550 | 3880 | 4800 | 6640 | 7590 | 10300 | 12800 |
| 2026-04-16 11:15 | 3.51 | 4110 | 16300 (1999) | 2280 (2023) | 5760 | 2650 | 3020 | 3550 | 3880 | 4800 | 6640 | 7590 | 10300 | 12800 |
| 2026-04-16 10:15 | 3.52 | 4150 | 16300 (1999) | 2280 (2023) | 5760 | 2650 | 3020 | 3550 | 3880 | 4800 | 6640 | 7590 | 10300 | 12800 |
| 2026-04-16 09:15 | 3.47 | 3970 | 16300 (1999) | 2280 (2023) | 5760 | 2650 | 3020 | 3550 | 3880 | 4800 | 6640 | 7590 | 10300 | 12800 |
| 2026-04-16 08:15 | 3.36 | 3590 | 16300 (1999) | 2280 (2023) | 5760 | 2650 | 3020 | 3550 | 3880 | 4800 | 6640 | 7590 | 10300 | 12800 |
| 2026-04-16 07:15 | 3.16 | 2950 | 16300 (1999) | 2280 (2023) | 5760 | 2650 | 3020 | 3550 | 3880 | 4800 | 6640 | 7590 | 10300 | 12800 |
| 2026-04-16 06:15 | 2.87 | 2150 | 16300 (1999) | 2280 (2023) | 5760 | 2650 | 3020 | 3550 | 3880 | 4800 | 6640 | 7590 | 10300 | 12800 |
| 2026-04-16 05:15 | 2.58 | 1480 | 16300 (1999) | 2280 (2023) | 5760 | 2650 | 3020 | 3550 | 3880 | 4800 | 6640 | 7590 | 10300 | 12800 |
| 2026-04-16 04:15 | 2.43 | 1190 | 16300 (1999) | 2280 (2023) | 5760 | 2650 | 3020 | 3550 | 3880 | 4800 | 6640 | 7590 | 10300 | 12800 |
| 2026-04-16 03:15 | 2.37 | 1090 | 16300 (1999) | 2280 (2023) | 5760 | 2650 | 3020 | 3550 | 3880 | 4800 | 6640 | 7590 | 10300 | 12800 |
| 2026-04-16 02:15 | 2.37 | 1090 | 16300 (1999) | 2280 (2023) | 5760 | 2650 | 3020 | 3550 | 3880 | 4800 | 6640 | 7590 | 10300 | 12800 |
| 2026-04-16 01:15 | 2.38 | 1100 | 16300 (1999) | 2280 (2023) | 5760 | 2650 | 3020 | 3550 | 3880 | 4800 | 6640 | 7590 | 10300 | 12800 |
| 2026-04-16 00:15 | 2.41 | 1160 | 16300 (1999) | 2280 (2023) | 5760 | 2650 | 3020 | 3550 | 3880 | 4800 | 6640 | 7590 | 10300 | 12800 |
| 2026-04-15 23:15 | 2.44 | 1210 | 16300 (1999) | 2280 (2023) | 5760 | 2650 | 3020 | 3550 | 3880 | 4800 | 6640 | 7590 | 10300 | 12800 |
| 2026-04-15 22:15 | 2.49 | 1300 | 15300 (1984) | 2180 (2003) | 5790 | 2830 | 3080 | 3800 | 3950 | 5160 | 6860 | 7420 | 10200 | 11900 |
| 2026-04-15 21:15 | 2.54 | 1400 | 15300 (1984) | 2180 (2003) | 5790 | 2830 | 3080 | 3800 | 3950 | 5160 | 6860 | 7420 | 10200 | 11900 |
| 2026-04-15 20:15 | 2.61 | 1550 | 15300 (1984) | 2180 (2003) | 5790 | 2830 | 3080 | 3800 | 3950 | 5160 | 6860 | 7420 | 10200 | 11900 |
| 2026-04-15 19:15 | 2.70 | 1740 | 15300 (1984) | 2180 (2003) | 5790 | 2830 | 3080 | 3800 | 3950 | 5160 | 6860 | 7420 | 10200 | 11900 |
| 2026-04-15 18:15 | 2.81 | 2000 | 15300 (1984) | 2180 (2003) | 5790 | 2830 | 3080 | 3800 | 3950 | 5160 | 6860 | 7420 | 10200 | 11900 |
| 2026-04-15 17:15 | 2.93 | 2300 | 15300 (1984) | 2180 (2003) | 5790 | 2830 | 3080 | 3800 | 3950 | 5160 | 6860 | 7420 | 10200 | 11900 |
| 2026-04-15 16:15 | 3.07 | 2690 | 15300 (1984) | 2180 (2003) | 5790 | 2830 | 3080 | 3800 | 3950 | 5160 | 6860 | 7420 | 10200 | 11900 |
| 2026-04-15 15:15 | 3.21 | 3100 | 15300 (1984) | 2180 (2003) | 5790 | 2830 | 3080 | 3800 | 3950 | 5160 | 6860 | 7420 | 10200 | 11900 |
| 2026-04-15 14:15 | 3.35 | 3550 | 15300 (1984) | 2180 (2003) | 5790 | 2830 | 3080 | 3800 | 3950 | 5160 | 6860 | 7420 | 10200 | 11900 |
| 2026-04-15 13:15 | 3.46 | 3930 | 15300 (1984) | 2180 (2003) | 5790 | 2830 | 3080 | 3800 | 3950 | 5160 | 6860 | 7420 | 10200 | 11900 |
| 2026-04-15 12:15 | 3.54 | 4220 | 15300 (1984) | 2180 (2003) | 5790 | 2830 | 3080 | 3800 | 3950 | 5160 | 6860 | 7420 | 10200 | 11900 |
| 2026-04-15 11:15 | 3.61 | 4480 | 15300 (1984) | 2180 (2003) | 5790 | 2830 | 3080 | 3800 | 3950 | 5160 | 6860 | 7420 | 10200 | 11900 |
| 2026-04-15 10:15 | 3.64 | 4600 | 15300 (1984) | 2180 (2003) | 5790 | 2830 | 3080 | 3800 | 3950 | 5160 | 6860 | 7420 | 10200 | 11900 |
| 2026-04-15 09:15 | 3.63 | 4560 | 15300 (1984) | 2180 (2003) | 5790 | 2830 | 3080 | 3800 | 3950 | 5160 | 6860 | 7420 | 10200 | 11900 |
| 2026-04-15 08:15 | 3.62 | 4520 | 15300 (1984) | 2180 (2003) | 5790 | 2830 | 3080 | 3800 | 3950 | 5160 | 6860 | 7420 | 10200 | 11900 |
| 2026-04-15 07:15 | 3.58 | 4370 | 15300 (1984) | 2180 (2003) | 5790 | 2830 | 3080 | 3800 | 3950 | 5160 | 6860 | 7420 | 10200 | 11900 |
| 2026-04-15 06:15 | 3.53 | 4190 | 15300 (1984) | 2180 (2003) | 5790 | 2830 | 3080 | 3800 | 3950 | 5160 | 6860 | 7420 | 10200 | 11900 |
| 2026-04-15 05:15 | 3.43 | 3830 | 15300 (1984) | 2180 (2003) | 5790 | 2830 | 3080 | 3800 | 3950 | 5160 | 6860 | 7420 | 10200 | 11900 |
| 2026-04-15 04:15 | 3.24 | 3200 | 15300 (1984) | 2180 (2003) | 5790 | 2830 | 3080 | 3800 | 3950 | 5160 | 6860 | 7420 | 10200 | 11900 |
| 2026-04-15 03:15 | 2.98 | 2430 | 15300 (1984) | 2180 (2003) | 5790 | 2830 | 3080 | 3800 | 3950 | 5160 | 6860 | 7420 | 10200 | 11900 |
| 2026-04-15 02:15 | 2.74 | 1830 | 15300 (1984) | 2180 (2003) | 5790 | 2830 | 3080 | 3800 | 3950 | 5160 | 6860 | 7420 | 10200 | 11900 |
| 2026-04-15 01:15 | 2.57 | 1460 | 15300 (1984) | 2180 (2003) | 5790 | 2830 | 3080 | 3800 | 3950 | 5160 | 6860 | 7420 | 10200 | 11900 |
| 2026-04-15 00:15 | 2.49 | 1300 | 15300 (1984) | 2180 (2003) | 5790 | 2830 | 3080 | 3800 | 3950 | 5160 | 6860 | 7420 | 10200 | 11900 |
| 2026-04-14 23:15 | 2.46 | 1250 | 15300 (1984) | 2180 (2003) | 5790 | 2830 | 3080 | 3800 | 3950 | 5160 | 6860 | 7420 | 10200 | 11900 |
| 2026-04-14 22:15 | 2.47 | 1270 | 15800 (1984) | 2490 (2025) | 5610 | 2750 | 3180 | 3810 | 4060 | 5050 | 6000 | 7300 | 9310 | 11100 |
| 2026-04-14 21:15 | 2.52 | 1360 | 15800 (1984) | 2490 (2025) | 5610 | 2750 | 3180 | 3810 | 4060 | 5050 | 6000 | 7300 | 9310 | 11100 |
| 2026-04-14 20:15 | 2.58 | 1480 | 15800 (1984) | 2490 (2025) | 5610 | 2750 | 3180 | 3810 | 4060 | 5050 | 6000 | 7300 | 9310 | 11100 |
| 2026-04-14 19:15 | 2.67 | 1670 | 15800 (1984) | 2490 (2025) | 5610 | 2750 | 3180 | 3810 | 4060 | 5050 | 6000 | 7300 | 9310 | 11100 |
| 2026-04-14 18:15 | 2.78 | 1930 | 15800 (1984) | 2490 (2025) | 5610 | 2750 | 3180 | 3810 | 4060 | 5050 | 6000 | 7300 | 9310 | 11100 |
| 2026-04-14 17:15 | 2.91 | 2250 | 15800 (1984) | 2490 (2025) | 5610 | 2750 | 3180 | 3810 | 4060 | 5050 | 6000 | 7300 | 9310 | 11100 |
| 2026-04-14 16:15 | 3.07 | 2690 | 15800 (1984) | 2490 (2025) | 5610 | 2750 | 3180 | 3810 | 4060 | 5050 | 6000 | 7300 | 9310 | 11100 |
| 2026-04-14 15:15 | 3.22 | 3130 | 15800 (1984) | 2490 (2025) | 5610 | 2750 | 3180 | 3810 | 4060 | 5050 | 6000 | 7300 | 9310 | 11100 |
| 2026-04-14 14:15 | 3.36 | 3590 | 15800 (1984) | 2490 (2025) | 5610 | 2750 | 3180 | 3810 | 4060 | 5050 | 6000 | 7300 | 9310 | 11100 |
| 2026-04-14 13:15 | 3.47 | 3970 | 15800 (1984) | 2490 (2025) | 5610 | 2750 | 3180 | 3810 | 4060 | 5050 | 6000 | 7300 | 9310 | 11100 |
| 2026-04-14 12:15 | 3.52 | 4150 | 15800 (1984) | 2490 (2025) | 5610 | 2750 | 3180 | 3810 | 4060 | 5050 | 6000 | 7300 | 9310 | 11100 |
| 2026-04-14 11:15 | 3.61 | 4480 | 15800 (1984) | 2490 (2025) | 5610 | 2750 | 3180 | 3810 | 4060 | 5050 | 6000 | 7300 | 9310 | 11100 |
| 2026-04-14 10:15 | 3.63 | 4560 | 15800 (1984) | 2490 (2025) | 5610 | 2750 | 3180 | 3810 | 4060 | 5050 | 6000 | 7300 | 9310 | 11100 |
| 2026-04-14 09:15 | 3.66 | 4680 | 15800 (1984) | 2490 (2025) | 5610 | 2750 | 3180 | 3810 | 4060 | 5050 | 6000 | 7300 | 9310 | 11100 |
| 2026-04-14 08:15 | 3.65 | 4640 | 15800 (1984) | 2490 (2025) | 5610 | 2750 | 3180 | 3810 | 4060 | 5050 | 6000 | 7300 | 9310 | 11100 |
| 2026-04-14 07:15 | 3.61 | 4480 | 15800 (1984) | 2490 (2025) | 5610 | 2750 | 3180 | 3810 | 4060 | 5050 | 6000 | 7300 | 9310 | 11100 |
| 2026-04-14 06:15 | 3.56 | 4300 | 15800 (1984) | 2490 (2025) | 5610 | 2750 | 3180 | 3810 | 4060 | 5050 | 6000 | 7300 | 9310 | 11100 |
| 2026-04-14 05:15 | 3.48 | 4000 | 15800 (1984) | 2490 (2025) | 5610 | 2750 | 3180 | 3810 | 4060 | 5050 | 6000 | 7300 | 9310 | 11100 |
| 2026-04-14 04:15 | 3.34 | 3520 | 15800 (1984) | 2490 (2025) | 5610 | 2750 | 3180 | 3810 | 4060 | 5050 | 6000 | 7300 | 9310 | 11100 |
| 2026-04-14 03:15 | 3.10 | 2770 | 15800 (1984) | 2490 (2025) | 5610 | 2750 | 3180 | 3810 | 4060 | 5050 | 6000 | 7300 | 9310 | 11100 |
| 2026-04-14 02:15 | 2.86 | 2120 | 15800 (1984) | 2490 (2025) | 5610 | 2750 | 3180 | 3810 | 4060 | 5050 | 6000 | 7300 | 9310 | 11100 |
| 2026-04-14 01:15 | 2.66 | 1650 | 15800 (1984) | 2490 (2025) | 5610 | 2750 | 3180 | 3810 | 4060 | 5050 | 6000 | 7300 | 9310 | 11100 |
| 2026-04-14 00:15 | 2.58 | 1480 | 15800 (1984) | 2490 (2025) | 5610 | 2750 | 3180 | 3810 | 4060 | 5050 | 6000 | 7300 | 9310 | 11100 |
| 2026-04-13 23:15 | 2.55 | 1420 | 15800 (1984) | 2490 (2025) | 5610 | 2750 | 3180 | 3810 | 4060 | 5050 | 6000 | 7300 | 9310 | 11100 |
| 2026-04-13 22:15 | 2.57 | 1460 | 22100 (1984) | 1570 (2022) | 5790 | 2890 | 3250 | 3800 | 3970 | 4950 | 6630 | 7300 | 9540 | 11200 |
| 2026-04-13 21:15 | 2.63 | 1590 | 22100 (1984) | 1570 (2022) | 5790 | 2890 | 3250 | 3800 | 3970 | 4950 | 6630 | 7300 | 9540 | 11200 |
| 2026-04-13 20:15 | 2.71 | 1760 | 22100 (1984) | 1570 (2022) | 5790 | 2890 | 3250 | 3800 | 3970 | 4950 | 6630 | 7300 | 9540 | 11200 |
| 2026-04-13 19:15 | 2.82 | 2020 | 22100 (1984) | 1570 (2022) | 5790 | 2890 | 3250 | 3800 | 3970 | 4950 | 6630 | 7300 | 9540 | 11200 |
| 2026-04-13 18:15 | 2.94 | 2330 | 22100 (1984) | 1570 (2022) | 5790 | 2890 | 3250 | 3800 | 3970 | 4950 | 6630 | 7300 | 9540 | 11200 |
| 2026-04-13 17:15 | 3.09 | 2740 | 22100 (1984) | 1570 (2022) | 5790 | 2890 | 3250 | 3800 | 3970 | 4950 | 6630 | 7300 | 9540 | 11200 |
| 2026-04-13 16:15 | 3.24 | 3200 | 22100 (1984) | 1570 (2022) | 5790 | 2890 | 3250 | 3800 | 3970 | 4950 | 6630 | 7300 | 9540 | 11200 |
| 2026-04-13 15:15 | 3.35 | 3550 | 22100 (1984) | 1570 (2022) | 5790 | 2890 | 3250 | 3800 | 3970 | 4950 | 6630 | 7300 | 9540 | 11200 |
| 2026-04-13 14:15 | 3.49 | 4040 | 22100 (1984) | 1570 (2022) | 5790 | 2890 | 3250 | 3800 | 3970 | 4950 | 6630 | 7300 | 9540 | 11200 |
| 2026-04-13 13:15 | 3.55 | 4260 | 22100 (1984) | 1570 (2022) | 5790 | 2890 | 3250 | 3800 | 3970 | 4950 | 6630 | 7300 | 9540 | 11200 |
| 2026-04-13 12:15 | 3.61 | 4480 | 22100 (1984) | 1570 (2022) | 5790 | 2890 | 3250 | 3800 | 3970 | 4950 | 6630 | 7300 | 9540 | 11200 |
| 2026-04-13 11:15 | 3.64 | 4600 | 22100 (1984) | 1570 (2022) | 5790 | 2890 | 3250 | 3800 | 3970 | 4950 | 6630 | 7300 | 9540 | 11200 |
| 2026-04-13 10:15 | 3.64 | 4600 | 22100 (1984) | 1570 (2022) | 5790 | 2890 | 3250 | 3800 | 3970 | 4950 | 6630 | 7300 | 9540 | 11200 |
| 2026-04-13 09:15 | 3.61 | 4480 | 22100 (1984) | 1570 (2022) | 5790 | 2890 | 3250 | 3800 | 3970 | 4950 | 6630 | 7300 | 9540 | 11200 |
| 2026-04-13 08:15 | 3.54 | 4220 | 22100 (1984) | 1570 (2022) | 5790 | 2890 | 3250 | 3800 | 3970 | 4950 | 6630 | 7300 | 9540 | 11200 |
| 2026-04-13 07:15 | 3.45 | 3900 | 22100 (1984) | 1570 (2022) | 5790 | 2890 | 3250 | 3800 | 3970 | 4950 | 6630 | 7300 | 9540 | 11200 |
| 2026-04-13 06:15 | 3.30 | 3390 | 22100 (1984) | 1570 (2022) | 5790 | 2890 | 3250 | 3800 | 3970 | 4950 | 6630 | 7300 | 9540 | 11200 |
| 2026-04-13 05:15 | 3.15 | 2920 | 22100 (1984) | 1570 (2022) | 5790 | 2890 | 3250 | 3800 | 3970 | 4950 | 6630 | 7300 | 9540 | 11200 |
| 2026-04-13 04:15 | 3.01 | 2520 | 22100 (1984) | 1570 (2022) | 5790 | 2890 | 3250 | 3800 | 3970 | 4950 | 6630 | 7300 | 9540 | 11200 |
| 2026-04-13 03:15 | 2.88 | 2170 | 22100 (1984) | 1570 (2022) | 5790 | 2890 | 3250 | 3800 | 3970 | 4950 | 6630 | 7300 | 9540 | 11200 |
| 2026-04-13 02:15 | 2.75 | 1860 | 22100 (1984) | 1570 (2022) | 5790 | 2890 | 3250 | 3800 | 3970 | 4950 | 6630 | 7300 | 9540 | 11200 |
| 2026-04-13 01:15 | 2.64 | 1610 | 22100 (1984) | 1570 (2022) | 5790 | 2890 | 3250 | 3800 | 3970 | 4950 | 6630 | 7300 | 9540 | 11200 |
| 2026-04-13 00:15 | 2.56 | 1440 | 22100 (1984) | 1570 (2022) | 5790 | 2890 | 3250 | 3800 | 3970 | 4950 | 6630 | 7300 | 9540 | 11200 |
| 2026-04-12 23:15 | 2.50 | 1320 | 22100 (1984) | 1570 (2022) | 5790 | 2890 | 3250 | 3800 | 3970 | 4950 | 6630 | 7300 | 9540 | 11200 |
| 2026-04-12 22:15 | 2.49 | 1300 | 23300 (1984) | 1870 (2023) | 5860 | 2870 | 3230 | 3750 | 4020 | 4860 | 6860 | 7440 | 10000 | 11100 |
| 2026-04-12 21:15 | 2.50 | 1320 | 23300 (1984) | 1870 (2023) | 5860 | 2870 | 3230 | 3750 | 4020 | 4860 | 6860 | 7440 | 10000 | 11100 |
| 2026-04-12 20:15 | 2.53 | 1380 | 23300 (1984) | 1870 (2023) | 5860 | 2870 | 3230 | 3750 | 4020 | 4860 | 6860 | 7440 | 10000 | 11100 |
| 2026-04-12 19:15 | 2.57 | 1460 | 23300 (1984) | 1870 (2023) | 5860 | 2870 | 3230 | 3750 | 4020 | 4860 | 6860 | 7440 | 10000 | 11100 |
| 2026-04-12 18:15 | 2.62 | 1570 | 23300 (1984) | 1870 (2023) | 5860 | 2870 | 3230 | 3750 | 4020 | 4860 | 6860 | 7440 | 10000 | 11100 |
| 2026-04-12 17:15 | 2.70 | 1740 | 23300 (1984) | 1870 (2023) | 5860 | 2870 | 3230 | 3750 | 4020 | 4860 | 6860 | 7440 | 10000 | 11100 |
| 2026-04-12 16:15 | 2.78 | 1930 | 23300 (1984) | 1870 (2023) | 5860 | 2870 | 3230 | 3750 | 4020 | 4860 | 6860 | 7440 | 10000 | 11100 |
| 2026-04-12 15:15 | 2.88 | 2170 | 23300 (1984) | 1870 (2023) | 5860 | 2870 | 3230 | 3750 | 4020 | 4860 | 6860 | 7440 | 10000 | 11100 |
| 2026-04-12 14:15 | 2.96 | 2380 | 23300 (1984) | 1870 (2023) | 5860 | 2870 | 3230 | 3750 | 4020 | 4860 | 6860 | 7440 | 10000 | 11100 |
| 2026-04-12 13:15 | 3.03 | 2570 | 23300 (1984) | 1870 (2023) | 5860 | 2870 | 3230 | 3750 | 4020 | 4860 | 6860 | 7440 | 10000 | 11100 |
| 2026-04-12 12:15 | 3.07 | 2690 | 23300 (1984) | 1870 (2023) | 5860 | 2870 | 3230 | 3750 | 4020 | 4860 | 6860 | 7440 | 10000 | 11100 |
| 2026-04-12 11:15 | 3.11 | 2800 | 23300 (1984) | 1870 (2023) | 5860 | 2870 | 3230 | 3750 | 4020 | 4860 | 6860 | 7440 | 10000 | 11100 |
| 2026-04-12 10:15 | 3.16 | 2950 | 23300 (1984) | 1870 (2023) | 5860 | 2870 | 3230 | 3750 | 4020 | 4860 | 6860 | 7440 | 10000 | 11100 |
| 2026-04-12 09:15 | 3.20 | 3070 | 23300 (1984) | 1870 (2023) | 5860 | 2870 | 3230 | 3750 | 4020 | 4860 | 6860 | 7440 | 10000 | 11100 |
| 2026-04-12 08:15 | 3.21 | 3100 | 23300 (1984) | 1870 (2023) | 5860 | 2870 | 3230 | 3750 | 4020 | 4860 | 6860 | 7440 | 10000 | 11100 |
| 2026-04-12 07:15 | 3.25 | 3230 | 23300 (1984) | 1870 (2023) | 5860 | 2870 | 3230 | 3750 | 4020 | 4860 | 6860 | 7440 | 10000 | 11100 |
| 2026-04-12 06:15 | 3.29 | 3360 | 23300 (1984) | 1870 (2023) | 5860 | 2870 | 3230 | 3750 | 4020 | 4860 | 6860 | 7440 | 10000 | 11100 |
| 2026-04-12 05:15 | 3.37 | 3620 | 23300 (1984) | 1870 (2023) | 5860 | 2870 | 3230 | 3750 | 4020 | 4860 | 6860 | 7440 | 10000 | 11100 |
| 2026-04-12 04:15 | 3.41 | 3760 | 23300 (1984) | 1870 (2023) | 5860 | 2870 | 3230 | 3750 | 4020 | 4860 | 6860 | 7440 | 10000 | 11100 |
| 2026-04-12 03:15 | 3.47 | 3970 | 23300 (1984) | 1870 (2023) | 5860 | 2870 | 3230 | 3750 | 4020 | 4860 | 6860 | 7440 | 10000 | 11100 |
| 2026-04-12 02:15 | 3.52 | 4150 | 23300 (1984) | 1870 (2023) | 5860 | 2870 | 3230 | 3750 | 4020 | 4860 | 6860 | 7440 | 10000 | 11100 |
| 2026-04-12 01:15 | 3.54 | 4220 | 23300 (1984) | 1870 (2023) | 5860 | 2870 | 3230 | 3750 | 4020 | 4860 | 6860 | 7440 | 10000 | 11100 |
| 2026-04-12 00:15 | 3.51 | 4110 | 23300 (1984) | 1870 (2023) | 5860 | 2870 | 3230 | 3750 | 4020 | 4860 | 6860 | 7440 | 10000 | 11100 |
| 2026-04-11 23:15 | 3.50 | 4080 | 23300 (1984) | 1870 (2023) | 5860 | 2870 | 3230 | 3750 | 4020 | 4860 | 6860 | 7440 | 10000 | 11100 |
| 2026-04-11 22:15 | 3.42 | 3790 | 17800 (1984) | 1950 (2023) | 5730 | 2600 | 3160 | 3750 | 3990 | 4830 | 6830 | 7680 | 9040 | 11000 |
| 2026-04-11 21:15 | 3.34 | 3520 | 17800 (1984) | 1950 (2023) | 5730 | 2600 | 3160 | 3750 | 3990 | 4830 | 6830 | 7680 | 9040 | 11000 |
| 2026-04-11 20:15 | 3.26 | 3260 | 17800 (1984) | 1950 (2023) | 5730 | 2600 | 3160 | 3750 | 3990 | 4830 | 6830 | 7680 | 9040 | 11000 |
| 2026-04-11 19:15 | 3.22 | 3130 | 17800 (1984) | 1950 (2023) | 5730 | 2600 | 3160 | 3750 | 3990 | 4830 | 6830 | 7680 | 9040 | 11000 |
| 2026-04-11 18:15 | 3.21 | 3100 | 17800 (1984) | 1950 (2023) | 5730 | 2600 | 3160 | 3750 | 3990 | 4830 | 6830 | 7680 | 9040 | 11000 |
| 2026-04-11 17:15 | 3.22 | 3130 | 17800 (1984) | 1950 (2023) | 5730 | 2600 | 3160 | 3750 | 3990 | 4830 | 6830 | 7680 | 9040 | 11000 |
| 2026-04-11 16:15 | 3.23 | 3160 | 17800 (1984) | 1950 (2023) | 5730 | 2600 | 3160 | 3750 | 3990 | 4830 | 6830 | 7680 | 9040 | 11000 |
| 2026-04-11 15:15 | 3.25 | 3230 | 17800 (1984) | 1950 (2023) | 5730 | 2600 | 3160 | 3750 | 3990 | 4830 | 6830 | 7680 | 9040 | 11000 |
| 2026-04-11 14:15 | 3.27 | 3290 | 17800 (1984) | 1950 (2023) | 5730 | 2600 | 3160 | 3750 | 3990 | 4830 | 6830 | 7680 | 9040 | 11000 |
| 2026-04-11 13:15 | 3.31 | 3420 | 17800 (1984) | 1950 (2023) | 5730 | 2600 | 3160 | 3750 | 3990 | 4830 | 6830 | 7680 | 9040 | 11000 |
| 2026-04-11 12:15 | 3.37 | 3620 | 17800 (1984) | 1950 (2023) | 5730 | 2600 | 3160 | 3750 | 3990 | 4830 | 6830 | 7680 | 9040 | 11000 |
| 2026-04-11 11:15 | 3.41 | 3760 | 17800 (1984) | 1950 (2023) | 5730 | 2600 | 3160 | 3750 | 3990 | 4830 | 6830 | 7680 | 9040 | 11000 |
| 2026-04-11 10:15 | 3.46 | 3930 | 17800 (1984) | 1950 (2023) | 5730 | 2600 | 3160 | 3750 | 3990 | 4830 | 6830 | 7680 | 9040 | 11000 |
| 2026-04-11 09:15 | 3.50 | 4080 | 17800 (1984) | 1950 (2023) | 5730 | 2600 | 3160 | 3750 | 3990 | 4830 | 6830 | 7680 | 9040 | 11000 |
| 2026-04-11 08:15 | 3.54 | 4220 | 17800 (1984) | 1950 (2023) | 5730 | 2600 | 3160 | 3750 | 3990 | 4830 | 6830 | 7680 | 9040 | 11000 |
| 2026-04-11 07:15 | 3.54 | 4220 | 17800 (1984) | 1950 (2023) | 5730 | 2600 | 3160 | 3750 | 3990 | 4830 | 6830 | 7680 | 9040 | 11000 |
| 2026-04-11 06:15 | 3.63 | 4560 | 17800 (1984) | 1950 (2023) | 5730 | 2600 | 3160 | 3750 | 3990 | 4830 | 6830 | 7680 | 9040 | 11000 |
| 2026-04-11 05:15 | 3.62 | 4520 | 17800 (1984) | 1950 (2023) | 5730 | 2600 | 3160 | 3750 | 3990 | 4830 | 6830 | 7680 | 9040 | 11000 |
| 2026-04-11 04:15 | 3.62 | 4520 | 17800 (1984) | 1950 (2023) | 5730 | 2600 | 3160 | 3750 | 3990 | 4830 | 6830 | 7680 | 9040 | 11000 |
| 2026-04-11 03:15 | 3.57 | 4330 | 17800 (1984) | 1950 (2023) | 5730 | 2600 | 3160 | 3750 | 3990 | 4830 | 6830 | 7680 | 9040 | 11000 |
| 2026-04-11 02:15 | 3.45 | 3900 | 17800 (1984) | 1950 (2023) | 5730 | 2600 | 3160 | 3750 | 3990 | 4830 | 6830 | 7680 | 9040 | 11000 |
| 2026-04-11 01:15 | 3.31 | 3420 | 17800 (1984) | 1950 (2023) | 5730 | 2600 | 3160 | 3750 | 3990 | 4830 | 6830 | 7680 | 9040 | 11000 |
| 2026-04-11 00:15 | 3.08 | 2710 | 17800 (1984) | 1950 (2023) | 5730 | 2600 | 3160 | 3750 | 3990 | 4830 | 6830 | 7680 | 9040 | 11000 |
| 2026-04-10 23:15 | 2.88 | 2170 | 17800 (1984) | 1950 (2023) | 5730 | 2600 | 3160 | 3750 | 3990 | 4830 | 6830 | 7680 | 9040 | 11000 |
| 2026-04-10 22:15 | 2.77 | 1900 | 19100 (1984) | 2190 (2022) | 5880 | 3060 | 3310 | 3720 | 4000 | 5030 | 6850 | 7510 | 9660 | 12200 |
| 2026-04-10 21:15 | 2.72 | 1790 | 19100 (1984) | 2190 (2022) | 5880 | 3060 | 3310 | 3720 | 4000 | 5030 | 6850 | 7510 | 9660 | 12200 |
| 2026-04-10 20:15 | 2.74 | 1830 | 19100 (1984) | 2190 (2022) | 5880 | 3060 | 3310 | 3720 | 4000 | 5030 | 6850 | 7510 | 9660 | 12200 |
| 2026-04-10 19:15 | 2.78 | 1930 | 19100 (1984) | 2190 (2022) | 5880 | 3060 | 3310 | 3720 | 4000 | 5030 | 6850 | 7510 | 9660 | 12200 |
| 2026-04-10 18:15 | 2.84 | 2070 | 19100 (1984) | 2190 (2022) | 5880 | 3060 | 3310 | 3720 | 4000 | 5030 | 6850 | 7510 | 9660 | 12200 |
| 2026-04-10 17:15 | 2.88 | 2170 | 19100 (1984) | 2190 (2022) | 5880 | 3060 | 3310 | 3720 | 4000 | 5030 | 6850 | 7510 | 9660 | 12200 |
| 2026-04-10 16:15 | 2.96 | 2380 | 19100 (1984) | 2190 (2022) | 5880 | 3060 | 3310 | 3720 | 4000 | 5030 | 6850 | 7510 | 9660 | 12200 |
| 2026-04-10 15:15 | 3.06 | 2660 | 19100 (1984) | 2190 (2022) | 5880 | 3060 | 3310 | 3720 | 4000 | 5030 | 6850 | 7510 | 9660 | 12200 |
| 2026-04-10 14:15 | 3.17 | 2980 | 19100 (1984) | 2190 (2022) | 5880 | 3060 | 3310 | 3720 | 4000 | 5030 | 6850 | 7510 | 9660 | 12200 |
| 2026-04-10 13:15 | 3.25 | 3230 | 19100 (1984) | 2190 (2022) | 5880 | 3060 | 3310 | 3720 | 4000 | 5030 | 6850 | 7510 | 9660 | 12200 |
| 2026-04-10 12:15 | 3.37 | 3620 | 19100 (1984) | 2190 (2022) | 5880 | 3060 | 3310 | 3720 | 4000 | 5030 | 6850 | 7510 | 9660 | 12200 |
| 2026-04-10 11:15 | 3.44 | 3860 | 19100 (1984) | 2190 (2022) | 5880 | 3060 | 3310 | 3720 | 4000 | 5030 | 6850 | 7510 | 9660 | 12200 |
| 2026-04-10 10:15 | 3.53 | 4190 | 19100 (1984) | 2190 (2022) | 5880 | 3060 | 3310 | 3720 | 4000 | 5030 | 6850 | 7510 | 9660 | 12200 |
| 2026-04-10 09:15 | 3.59 | 4410 | 19100 (1984) | 2190 (2022) | 5880 | 3060 | 3310 | 3720 | 4000 | 5030 | 6850 | 7510 | 9660 | 12200 |
| 2026-04-10 08:15 | 3.63 | 4560 | 19100 (1984) | 2190 (2022) | 5880 | 3060 | 3310 | 3720 | 4000 | 5030 | 6850 | 7510 | 9660 | 12200 |
| 2026-04-10 07:15 | 3.67 | 4720 | 19100 (1984) | 2190 (2022) | 5880 | 3060 | 3310 | 3720 | 4000 | 5030 | 6850 | 7510 | 9660 | 12200 |
| 2026-04-10 06:15 | 3.70 | 4840 | 19100 (1984) | 2190 (2022) | 5880 | 3060 | 3310 | 3720 | 4000 | 5030 | 6850 | 7510 | 9660 | 12200 |
| 2026-04-10 05:15 | 3.72 | 4920 | 19100 (1984) | 2190 (2022) | 5880 | 3060 | 3310 | 3720 | 4000 | 5030 | 6850 | 7510 | 9660 | 12200 |
| 2026-04-10 04:15 | 3.74 | 5000 | 19100 (1984) | 2190 (2022) | 5880 | 3060 | 3310 | 3720 | 4000 | 5030 | 6850 | 7510 | 9660 | 12200 |
| 2026-04-10 03:15 | 3.73 | 4960 | 19100 (1984) | 2190 (2022) | 5880 | 3060 | 3310 | 3720 | 4000 | 5030 | 6850 | 7510 | 9660 | 12200 |
| 2026-04-10 02:15 | 3.66 | 4680 | 19100 (1984) | 2190 (2022) | 5880 | 3060 | 3310 | 3720 | 4000 | 5030 | 6850 | 7510 | 9660 | 12200 |
| 2026-04-10 01:15 | 3.57 | 4330 | 19100 (1984) | 2190 (2022) | 5880 | 3060 | 3310 | 3720 | 4000 | 5030 | 6850 | 7510 | 9660 | 12200 |
| 2026-04-10 00:15 | 3.41 | 3760 | 19100 (1984) | 2190 (2022) | 5880 | 3060 | 3310 | 3720 | 4000 | 5030 | 6850 | 7510 | 9660 | 12200 |
| 2026-04-09 23:15 | 3.23 | 3160 | 19100 (1984) | 2190 (2022) | 5880 | 3060 | 3310 | 3720 | 4000 | 5030 | 6850 | 7510 | 9660 | 12200 |
| 2026-04-09 22:15 | 3.11 | 2800 | 21500 (1984) | 1860 (2004) | 6020 | 3200 | 3420 | 3950 | 4090 | 5050 | 7130 | 7740 | 9080 | 12600 |
| 2026-04-09 21:15 | 3.08 | 2710 | 21500 (1984) | 1860 (2004) | 6020 | 3200 | 3420 | 3950 | 4090 | 5050 | 7130 | 7740 | 9080 | 12600 |
| 2026-04-09 20:15 | 3.10 | 2770 | 21500 (1984) | 1860 (2004) | 6020 | 3200 | 3420 | 3950 | 4090 | 5050 | 7130 | 7740 | 9080 | 12600 |
| 2026-04-09 19:15 | 3.18 | 3010 | 21500 (1984) | 1860 (2004) | 6020 | 3200 | 3420 | 3950 | 4090 | 5050 | 7130 | 7740 | 9080 | 12600 |
| 2026-04-09 18:15 | 3.26 | 3260 | 21500 (1984) | 1860 (2004) | 6020 | 3200 | 3420 | 3950 | 4090 | 5050 | 7130 | 7740 | 9080 | 12600 |
| 2026-04-09 17:15 | 3.32 | 3450 | 21500 (1984) | 1860 (2004) | 6020 | 3200 | 3420 | 3950 | 4090 | 5050 | 7130 | 7740 | 9080 | 12600 |
| 2026-04-09 16:15 | 3.42 | 3790 | 21500 (1984) | 1860 (2004) | 6020 | 3200 | 3420 | 3950 | 4090 | 5050 | 7130 | 7740 | 9080 | 12600 |
| 2026-04-09 15:15 | 3.44 | 3860 | 21500 (1984) | 1860 (2004) | 6020 | 3200 | 3420 | 3950 | 4090 | 5050 | 7130 | 7740 | 9080 | 12600 |
| 2026-04-09 14:15 | 3.50 | 4080 | 21500 (1984) | 1860 (2004) | 6020 | 3200 | 3420 | 3950 | 4090 | 5050 | 7130 | 7740 | 9080 | 12600 |
| 2026-04-09 13:15 | 3.52 | 4150 | 21500 (1984) | 1860 (2004) | 6020 | 3200 | 3420 | 3950 | 4090 | 5050 | 7130 | 7740 | 9080 | 12600 |
| 2026-04-09 12:15 | 3.51 | 4110 | 21500 (1984) | 1860 (2004) | 6020 | 3200 | 3420 | 3950 | 4090 | 5050 | 7130 | 7740 | 9080 | 12600 |
| 2026-04-09 11:15 | 3.46 | 3930 | 21500 (1984) | 1860 (2004) | 6020 | 3200 | 3420 | 3950 | 4090 | 5050 | 7130 | 7740 | 9080 | 12600 |
| 2026-04-09 10:15 | 3.40 | 3720 | 21500 (1984) | 1860 (2004) | 6020 | 3200 | 3420 | 3950 | 4090 | 5050 | 7130 | 7740 | 9080 | 12600 |
| 2026-04-09 09:15 | 3.34 | 3520 | 21500 (1984) | 1860 (2004) | 6020 | 3200 | 3420 | 3950 | 4090 | 5050 | 7130 | 7740 | 9080 | 12600 |
| 2026-04-09 08:15 | 3.22 | 3130 | 21500 (1984) | 1860 (2004) | 6020 | 3200 | 3420 | 3950 | 4090 | 5050 | 7130 | 7740 | 9080 | 12600 |
| 2026-04-09 07:15 | 3.13 | 2860 | 21500 (1984) | 1860 (2004) | 6020 | 3200 | 3420 | 3950 | 4090 | 5050 | 7130 | 7740 | 9080 | 12600 |
| 2026-04-09 06:15 | 2.99 | 2460 | 21500 (1984) | 1860 (2004) | 6020 | 3200 | 3420 | 3950 | 4090 | 5050 | 7130 | 7740 | 9080 | 12600 |
| 2026-04-09 05:15 | 2.90 | 2220 | 21500 (1984) | 1860 (2004) | 6020 | 3200 | 3420 | 3950 | 4090 | 5050 | 7130 | 7740 | 9080 | 12600 |
| 2026-04-09 04:15 | 2.85 | 2100 | 21500 (1984) | 1860 (2004) | 6020 | 3200 | 3420 | 3950 | 4090 | 5050 | 7130 | 7740 | 9080 | 12600 |
| 2026-04-09 03:15 | 2.80 | 1970 | 21500 (1984) | 1860 (2004) | 6020 | 3200 | 3420 | 3950 | 4090 | 5050 | 7130 | 7740 | 9080 | 12600 |
| 2026-04-09 02:15 | 2.78 | 1930 | 21500 (1984) | 1860 (2004) | 6020 | 3200 | 3420 | 3950 | 4090 | 5050 | 7130 | 7740 | 9080 | 12600 |
| 2026-04-09 01:15 | 2.78 | 1930 | 21500 (1984) | 1860 (2004) | 6020 | 3200 | 3420 | 3950 | 4090 | 5050 | 7130 | 7740 | 9080 | 12600 |
| 2026-04-09 00:15 | 2.78 | 1930 | 21500 (1984) | 1860 (2004) | 6020 | 3200 | 3420 | 3950 | 4090 | 5050 | 7130 | 7740 | 9080 | 12600 |
| 2026-04-08 23:15 | 2.77 | 1900 | 21500 (1984) | 1860 (2004) | 6020 | 3200 | 3420 | 3950 | 4090 | 5050 | 7130 | 7740 | 9080 | 12600 |
| 2026-04-08 22:15 | 2.78 | 1930 | 22400 (1984) | 2030 (2004) | 5980 | 2970 | 3250 | 3580 | 4260 | 4860 | 7050 | 7470 | 9340 | 13900 |
| 2026-04-08 21:15 | 2.79 | 1950 | 22400 (1984) | 2030 (2004) | 5980 | 2970 | 3250 | 3580 | 4260 | 4860 | 7050 | 7470 | 9340 | 13900 |
| 2026-04-08 20:15 | 2.80 | 1970 | 22400 (1984) | 2030 (2004) | 5980 | 2970 | 3250 | 3580 | 4260 | 4860 | 7050 | 7470 | 9340 | 13900 |
| 2026-04-08 19:15 | 2.85 | 2100 | 22400 (1984) | 2030 (2004) | 5980 | 2970 | 3250 | 3580 | 4260 | 4860 | 7050 | 7470 | 9340 | 13900 |
| 2026-04-08 18:15 | 2.89 | 2200 | 22400 (1984) | 2030 (2004) | 5980 | 2970 | 3250 | 3580 | 4260 | 4860 | 7050 | 7470 | 9340 | 13900 |
| 2026-04-08 17:15 | 2.91 | 2250 | 22400 (1984) | 2030 (2004) | 5980 | 2970 | 3250 | 3580 | 4260 | 4860 | 7050 | 7470 | 9340 | 13900 |
| 2026-04-08 16:15 | 3.01 | 2520 | 22400 (1984) | 2030 (2004) | 5980 | 2970 | 3250 | 3580 | 4260 | 4860 | 7050 | 7470 | 9340 | 13900 |
| 2026-04-08 15:15 | 3.08 | 2710 | 22400 (1984) | 2030 (2004) | 5980 | 2970 | 3250 | 3580 | 4260 | 4860 | 7050 | 7470 | 9340 | 13900 |
| 2026-04-08 14:15 | 3.14 | 2890 | 22400 (1984) | 2030 (2004) | 5980 | 2970 | 3250 | 3580 | 4260 | 4860 | 7050 | 7470 | 9340 | 13900 |
| 2026-04-08 13:15 | 3.23 | 3160 | 22400 (1984) | 2030 (2004) | 5980 | 2970 | 3250 | 3580 | 4260 | 4860 | 7050 | 7470 | 9340 | 13900 |
| 2026-04-08 12:15 | 3.24 | 3200 | 22400 (1984) | 2030 (2004) | 5980 | 2970 | 3250 | 3580 | 4260 | 4860 | 7050 | 7470 | 9340 | 13900 |
| 2026-04-08 11:15 | 3.26 | 3260 | 22400 (1984) | 2030 (2004) | 5980 | 2970 | 3250 | 3580 | 4260 | 4860 | 7050 | 7470 | 9340 | 13900 |
| 2026-04-08 10:15 | 3.31 | 3420 | 22400 (1984) | 2030 (2004) | 5980 | 2970 | 3250 | 3580 | 4260 | 4860 | 7050 | 7470 | 9340 | 13900 |
| 2026-04-08 09:15 | 3.31 | 3420 | 22400 (1984) | 2030 (2004) | 5980 | 2970 | 3250 | 3580 | 4260 | 4860 | 7050 | 7470 | 9340 | 13900 |
| 2026-04-08 08:15 | 3.29 | 3360 | 22400 (1984) | 2030 (2004) | 5980 | 2970 | 3250 | 3580 | 4260 | 4860 | 7050 | 7470 | 9340 | 13900 |
| 2026-04-08 07:15 | 3.28 | 3320 | 22400 (1984) | 2030 (2004) | 5980 | 2970 | 3250 | 3580 | 4260 | 4860 | 7050 | 7470 | 9340 | 13900 |
| 2026-04-08 06:15 | 3.24 | 3200 | 22400 (1984) | 2030 (2004) | 5980 | 2970 | 3250 | 3580 | 4260 | 4860 | 7050 | 7470 | 9340 | 13900 |
| 2026-04-08 05:15 | 3.17 | 2980 | 22400 (1984) | 2030 (2004) | 5980 | 2970 | 3250 | 3580 | 4260 | 4860 | 7050 | 7470 | 9340 | 13900 |
| 2026-04-08 04:15 | 3.15 | 2920 | 22400 (1984) | 2030 (2004) | 5980 | 2970 | 3250 | 3580 | 4260 | 4860 | 7050 | 7470 | 9340 | 13900 |
| 2026-04-08 03:15 | 3.07 | 2690 | 22400 (1984) | 2030 (2004) | 5980 | 2970 | 3250 | 3580 | 4260 | 4860 | 7050 | 7470 | 9340 | 13900 |
| 2026-04-08 02:15 | 2.98 | 2430 | 22400 (1984) | 2030 (2004) | 5980 | 2970 | 3250 | 3580 | 4260 | 4860 | 7050 | 7470 | 9340 | 13900 |
| 2026-04-08 01:15 | 2.91 | 2250 | 22400 (1984) | 2030 (2004) | 5980 | 2970 | 3250 | 3580 | 4260 | 4860 | 7050 | 7470 | 9340 | 13900 |
| 2026-04-08 00:15 | 2.85 | 2100 | 22400 (1984) | 2030 (2004) | 5980 | 2970 | 3250 | 3580 | 4260 | 4860 | 7050 | 7470 | 9340 | 13900 |
| 2026-04-07 23:15 | 2.78 | 1930 | 22400 (1984) | 2030 (2004) | 5980 | 2970 | 3250 | 3580 | 4260 | 4860 | 7050 | 7470 | 9340 | 13900 |
| 2026-04-07 22:15 | 2.78 | 1930 | 18300 (1984) | 2630 (2004) | 5920 | 3220 | 3610 | 4090 | 4190 | 4880 | 6780 | 7280 | 9520 | 11700 |
| 2026-04-07 21:15 | 2.78 | 1930 | 18300 (1984) | 2630 (2004) | 5920 | 3220 | 3610 | 4090 | 4190 | 4880 | 6780 | 7280 | 9520 | 11700 |
| 2026-04-07 20:15 | 2.82 | 2020 | 18300 (1984) | 2630 (2004) | 5920 | 3220 | 3610 | 4090 | 4190 | 4880 | 6780 | 7280 | 9520 | 11700 |
| 2026-04-07 19:15 | 2.89 | 2200 | 18300 (1984) | 2630 (2004) | 5920 | 3220 | 3610 | 4090 | 4190 | 4880 | 6780 | 7280 | 9520 | 11700 |
| 2026-04-07 18:15 | 2.99 | 2460 | 18300 (1984) | 2630 (2004) | 5920 | 3220 | 3610 | 4090 | 4190 | 4880 | 6780 | 7280 | 9520 | 11700 |
| 2026-04-07 17:15 | 3.10 | 2770 | 18300 (1984) | 2630 (2004) | 5920 | 3220 | 3610 | 4090 | 4190 | 4880 | 6780 | 7280 | 9520 | 11700 |
| 2026-04-07 16:15 | 3.20 | 3070 | 18300 (1984) | 2630 (2004) | 5920 | 3220 | 3610 | 4090 | 4190 | 4880 | 6780 | 7280 | 9520 | 11700 |
| 2026-04-07 15:15 | 3.27 | 3290 | 18300 (1984) | 2630 (2004) | 5920 | 3220 | 3610 | 4090 | 4190 | 4880 | 6780 | 7280 | 9520 | 11700 |
| 2026-04-07 14:15 | 3.35 | 3550 | 18300 (1984) | 2630 (2004) | 5920 | 3220 | 3610 | 4090 | 4190 | 4880 | 6780 | 7280 | 9520 | 11700 |
| 2026-04-07 13:15 | 3.43 | 3830 | 18300 (1984) | 2630 (2004) | 5920 | 3220 | 3610 | 4090 | 4190 | 4880 | 6780 | 7280 | 9520 | 11700 |
| 2026-04-07 12:15 | 3.52 | 4150 | 18300 (1984) | 2630 (2004) | 5920 | 3220 | 3610 | 4090 | 4190 | 4880 | 6780 | 7280 | 9520 | 11700 |
| 2026-04-07 11:15 | 3.58 | 4370 | 18300 (1984) | 2630 (2004) | 5920 | 3220 | 3610 | 4090 | 4190 | 4880 | 6780 | 7280 | 9520 | 11700 |
| 2026-04-07 10:15 | 3.60 | 4450 | 18300 (1984) | 2630 (2004) | 5920 | 3220 | 3610 | 4090 | 4190 | 4880 | 6780 | 7280 | 9520 | 11700 |
| 2026-04-07 09:15 | 3.65 | 4640 | 18300 (1984) | 2630 (2004) | 5920 | 3220 | 3610 | 4090 | 4190 | 4880 | 6780 | 7280 | 9520 | 11700 |
| 2026-04-07 08:15 | 3.71 | 4880 | 18300 (1984) | 2630 (2004) | 5920 | 3220 | 3610 | 4090 | 4190 | 4880 | 6780 | 7280 | 9520 | 11700 |
| 2026-04-07 07:15 | 3.68 | 4760 | 18300 (1984) | 2630 (2004) | 5920 | 3220 | 3610 | 4090 | 4190 | 4880 | 6780 | 7280 | 9520 | 11700 |
| 2026-04-07 06:15 | 3.70 | 4840 | 18300 (1984) | 2630 (2004) | 5920 | 3220 | 3610 | 4090 | 4190 | 4880 | 6780 | 7280 | 9520 | 11700 |
| 2026-04-07 05:15 | 3.68 | 4760 | 18300 (1984) | 2630 (2004) | 5920 | 3220 | 3610 | 4090 | 4190 | 4880 | 6780 | 7280 | 9520 | 11700 |
| 2026-04-07 04:15 | 3.62 | 4520 | 18300 (1984) | 2630 (2004) | 5920 | 3220 | 3610 | 4090 | 4190 | 4880 | 6780 | 7280 | 9520 | 11700 |
| 2026-04-07 03:15 | 3.53 | 4190 | 18300 (1984) | 2630 (2004) | 5920 | 3220 | 3610 | 4090 | 4190 | 4880 | 6780 | 7280 | 9520 | 11700 |
| 2026-04-07 02:15 | 3.39 | 3690 | 18300 (1984) | 2630 (2004) | 5920 | 3220 | 3610 | 4090 | 4190 | 4880 | 6780 | 7280 | 9520 | 11700 |
| 2026-04-07 01:15 | 3.19 | 3040 | 18300 (1984) | 2630 (2004) | 5920 | 3220 | 3610 | 4090 | 4190 | 4880 | 6780 | 7280 | 9520 | 11700 |
| 2026-04-07 00:15 | 2.93 | 2300 | 18300 (1984) | 2630 (2004) | 5920 | 3220 | 3610 | 4090 | 4190 | 4880 | 6780 | 7280 | 9520 | 11700 |
| 2026-04-06 23:15 | 2.78 | 1930 | 18300 (1984) | 2630 (2004) | 5920 | 3220 | 3610 | 4090 | 4190 | 4880 | 6780 | 7280 | 9520 | 11700 |
| 2026-04-06 22:15 | 2.70 | 1740 | 21500 (1984) | 2630 (1961) | 6160 | 3280 | 3820 | 4080 | 4380 | 5200 | 6980 | 7460 | 10300 | 11800 |
| 2026-04-06 21:15 | 2.68 | 1700 | 21500 (1984) | 2630 (1961) | 6160 | 3280 | 3820 | 4080 | 4380 | 5200 | 6980 | 7460 | 10300 | 11800 |
| 2026-04-06 20:15 | 2.71 | 1760 | 21500 (1984) | 2630 (1961) | 6160 | 3280 | 3820 | 4080 | 4380 | 5200 | 6980 | 7460 | 10300 | 11800 |
| 2026-04-06 19:15 | 2.75 | 1860 | 21500 (1984) | 2630 (1961) | 6160 | 3280 | 3820 | 4080 | 4380 | 5200 | 6980 | 7460 | 10300 | 11800 |
| 2026-04-06 18:15 | 2.84 | 2070 | 21500 (1984) | 2630 (1961) | 6160 | 3280 | 3820 | 4080 | 4380 | 5200 | 6980 | 7460 | 10300 | 11800 |
| 2026-04-06 17:15 | 2.93 | 2300 | 21500 (1984) | 2630 (1961) | 6160 | 3280 | 3820 | 4080 | 4380 | 5200 | 6980 | 7460 | 10300 | 11800 |
| 2026-04-06 16:15 | 3.05 | 2630 | 21500 (1984) | 2630 (1961) | 6160 | 3280 | 3820 | 4080 | 4380 | 5200 | 6980 | 7460 | 10300 | 11800 |
| 2026-04-06 15:15 | 3.15 | 2920 | 21500 (1984) | 2630 (1961) | 6160 | 3280 | 3820 | 4080 | 4380 | 5200 | 6980 | 7460 | 10300 | 11800 |
| 2026-04-06 14:15 | 3.30 | 3390 | 21500 (1984) | 2630 (1961) | 6160 | 3280 | 3820 | 4080 | 4380 | 5200 | 6980 | 7460 | 10300 | 11800 |
| 2026-04-06 13:15 | 3.43 | 3830 | 21500 (1984) | 2630 (1961) | 6160 | 3280 | 3820 | 4080 | 4380 | 5200 | 6980 | 7460 | 10300 | 11800 |
| 2026-04-06 12:15 | 3.54 | 4220 | 21500 (1984) | 2630 (1961) | 6160 | 3280 | 3820 | 4080 | 4380 | 5200 | 6980 | 7460 | 10300 | 11800 |
| 2026-04-06 11:15 | 3.60 | 4450 | 21500 (1984) | 2630 (1961) | 6160 | 3280 | 3820 | 4080 | 4380 | 5200 | 6980 | 7460 | 10300 | 11800 |
| 2026-04-06 10:15 | 3.70 | 4840 | 21500 (1984) | 2630 (1961) | 6160 | 3280 | 3820 | 4080 | 4380 | 5200 | 6980 | 7460 | 10300 | 11800 |
| 2026-04-06 09:15 | 3.73 | 4960 | 21500 (1984) | 2630 (1961) | 6160 | 3280 | 3820 | 4080 | 4380 | 5200 | 6980 | 7460 | 10300 | 11800 |
| 2026-04-06 08:15 | 3.73 | 4960 | 21500 (1984) | 2630 (1961) | 6160 | 3280 | 3820 | 4080 | 4380 | 5200 | 6980 | 7460 | 10300 | 11800 |
| 2026-04-06 07:15 | 3.72 | 4920 | 21500 (1984) | 2630 (1961) | 6160 | 3280 | 3820 | 4080 | 4380 | 5200 | 6980 | 7460 | 10300 | 11800 |
| 2026-04-06 06:15 | 3.72 | 4920 | 21500 (1984) | 2630 (1961) | 6160 | 3280 | 3820 | 4080 | 4380 | 5200 | 6980 | 7460 | 10300 | 11800 |
| 2026-04-06 05:15 | 3.68 | 4760 | 21500 (1984) | 2630 (1961) | 6160 | 3280 | 3820 | 4080 | 4380 | 5200 | 6980 | 7460 | 10300 | 11800 |
| 2026-04-06 04:15 | 3.63 | 4560 | 21500 (1984) | 2630 (1961) | 6160 | 3280 | 3820 | 4080 | 4380 | 5200 | 6980 | 7460 | 10300 | 11800 |
| 2026-04-06 03:15 | 3.60 | 4450 | 21500 (1984) | 2630 (1961) | 6160 | 3280 | 3820 | 4080 | 4380 | 5200 | 6980 | 7460 | 10300 | 11800 |
| 2026-04-06 02:15 | 3.47 | 3970 | 21500 (1984) | 2630 (1961) | 6160 | 3280 | 3820 | 4080 | 4380 | 5200 | 6980 | 7460 | 10300 | 11800 |
| 2026-04-06 01:15 | 3.33 | 3490 | 21500 (1984) | 2630 (1961) | 6160 | 3280 | 3820 | 4080 | 4380 | 5200 | 6980 | 7460 | 10300 | 11800 |
| 2026-04-06 00:15 | 3.14 | 2890 | 21500 (1984) | 2630 (1961) | 6160 | 3280 | 3820 | 4080 | 4380 | 5200 | 6980 | 7460 | 10300 | 11800 |
| 2026-04-05 23:15 | 3.01 | 2520 | 21500 (1984) | 2630 (1961) | 6160 | 3280 | 3820 | 4080 | 4380 | 5200 | 6980 | 7460 | 10300 | 11800 |
| 2026-04-05 22:15 | 2.91 | 2250 | 23900 (1984) | 2630 (2003) | 6070 | 2960 | 3370 | 3830 | 3980 | 5260 | 6910 | 7620 | 9650 | 12100 |
| 2026-04-05 21:15 | 2.90 | 2220 | 23900 (1984) | 2630 (2003) | 6070 | 2960 | 3370 | 3830 | 3980 | 5260 | 6910 | 7620 | 9650 | 12100 |
| 2026-04-05 20:15 | 2.93 | 2300 | 23900 (1984) | 2630 (2003) | 6070 | 2960 | 3370 | 3830 | 3980 | 5260 | 6910 | 7620 | 9650 | 12100 |
| 2026-04-05 19:15 | 2.99 | 2460 | 23900 (1984) | 2630 (2003) | 6070 | 2960 | 3370 | 3830 | 3980 | 5260 | 6910 | 7620 | 9650 | 12100 |
| 2026-04-05 18:15 | 3.10 | 2770 | 23900 (1984) | 2630 (2003) | 6070 | 2960 | 3370 | 3830 | 3980 | 5260 | 6910 | 7620 | 9650 | 12100 |
| 2026-04-05 17:15 | 3.20 | 3070 | 23900 (1984) | 2630 (2003) | 6070 | 2960 | 3370 | 3830 | 3980 | 5260 | 6910 | 7620 | 9650 | 12100 |
| 2026-04-05 16:15 | 3.32 | 3450 | 23900 (1984) | 2630 (2003) | 6070 | 2960 | 3370 | 3830 | 3980 | 5260 | 6910 | 7620 | 9650 | 12100 |
| 2026-04-05 15:15 | 3.41 | 3760 | 23900 (1984) | 2630 (2003) | 6070 | 2960 | 3370 | 3830 | 3980 | 5260 | 6910 | 7620 | 9650 | 12100 |
| 2026-04-05 14:15 | 3.54 | 4220 | 23900 (1984) | 2630 (2003) | 6070 | 2960 | 3370 | 3830 | 3980 | 5260 | 6910 | 7620 | 9650 | 12100 |
| 2026-04-05 13:15 | 3.63 | 4560 | 23900 (1984) | 2630 (2003) | 6070 | 2960 | 3370 | 3830 | 3980 | 5260 | 6910 | 7620 | 9650 | 12100 |
| 2026-04-05 12:15 | 3.72 | 4920 | 23900 (1984) | 2630 (2003) | 6070 | 2960 | 3370 | 3830 | 3980 | 5260 | 6910 | 7620 | 9650 | 12100 |
| 2026-04-05 11:15 | 3.78 | 5160 | 23900 (1984) | 2630 (2003) | 6070 | 2960 | 3370 | 3830 | 3980 | 5260 | 6910 | 7620 | 9650 | 12100 |
| 2026-04-05 10:15 | 3.79 | 5200 | 23900 (1984) | 2630 (2003) | 6070 | 2960 | 3370 | 3830 | 3980 | 5260 | 6910 | 7620 | 9650 | 12100 |
| 2026-04-05 09:15 | 3.84 | 5410 | 23900 (1984) | 2630 (2003) | 6070 | 2960 | 3370 | 3830 | 3980 | 5260 | 6910 | 7620 | 9650 | 12100 |
| 2026-04-05 08:15 | 3.81 | 5280 | 23900 (1984) | 2630 (2003) | 6070 | 2960 | 3370 | 3830 | 3980 | 5260 | 6910 | 7620 | 9650 | 12100 |
| 2026-04-05 07:15 | 3.81 | 5280 | 23900 (1984) | 2630 (2003) | 6070 | 2960 | 3370 | 3830 | 3980 | 5260 | 6910 | 7620 | 9650 | 12100 |
| 2026-04-05 06:15 | 3.80 | 5240 | 23900 (1984) | 2630 (2003) | 6070 | 2960 | 3370 | 3830 | 3980 | 5260 | 6910 | 7620 | 9650 | 12100 |
| 2026-04-05 04:15 | 3.71 | 4880 | 23900 (1984) | 2630 (2003) | 6070 | 2960 | 3370 | 3830 | 3980 | 5260 | 6910 | 7620 | 9650 | 12100 |
| 2026-04-05 03:15 | 3.63 | 4560 | 23900 (1984) | 2630 (2003) | 6070 | 2960 | 3370 | 3830 | 3980 | 5260 | 6910 | 7620 | 9650 | 12100 |
| 2026-04-05 02:15 | 3.49 | 4040 | 23900 (1984) | 2630 (2003) | 6070 | 2960 | 3370 | 3830 | 3980 | 5260 | 6910 | 7620 | 9650 | 12100 |
| 2026-04-05 01:15 | 3.34 | 3520 | 23900 (1984) | 2630 (2003) | 6070 | 2960 | 3370 | 3830 | 3980 | 5260 | 6910 | 7620 | 9650 | 12100 |
| 2026-04-05 00:15 | 3.19 | 3040 | 23900 (1984) | 2630 (2003) | 6070 | 2960 | 3370 | 3830 | 3980 | 5260 | 6910 | 7620 | 9650 | 12100 |
| 2026-04-04 23:15 | 3.06 | 2660 | 23900 (1984) | 2630 (2003) | 6070 | 2960 | 3370 | 3830 | 3980 | 5260 | 6910 | 7620 | 9650 | 12100 |
A total of 730 rows are displayed for years 1949 through 2025.